Time,TemperatureF,DewpointF,PressureIn,WindDirection,WindDirectionDegrees,WindSpeedMPH,WindSpeedGustMPH,Humidity,HourlyPrecipIn,Conditions,Clouds,dailyrainin,SoftwareType,DateUTC
2013-02-09 00:00:00,-2.2,-7.1,29.64,South,185,3.0,6.0,79,0.00,,---,0.00,VWS V14.01,2013-02-09 09:00:00,
2013-02-09 00:02:00,-2.3,-7.5,29.63,South,185,0.0,0.0,78,0.00,,---,0.00,VWS V14.01,2013-02-09 09:02:00,
2013-02-09 00:03:00,-2.5,-7.7,29.64,South,185,0.0,0.0,78,0.00,,---,0.00,VWS V14.01,2013-02-09 09:03:00,
2013-02-09 00:04:00,-2.5,-7.7,29.64,South,185,1.0,3.0,78,0.00,,---,0.00,VWS V14.01,2013-02-09 09:04:00,
2013-02-09 00:05:00,-2.3,-7.5,29.63,South,185,0.0,4.0,78,0.00,,---,0.00,VWS V14.01,2013-02-09 09:05:00,
2013-02-09 00:07:00,-2.5,-7.7,29.64,South,185,4.0,4.0,78,0.00,,---,0.00,VWS V14.01,2013-02-09 09:07:00,
2013-02-09 00:08:00,-2.6,-7.8,29.63,South,185,2.0,4.0,78,0.00,,---,0.00,VWS V14.01,2013-02-09 09:08:00,
2013-02-09 00:09:00,-2.6,-7.8,29.63,South,185,2.0,4.0,78,0.00,,---,0.00,VWS V14.01,2013-02-09 09:09:00,
2013-02-09 00:10:00,-2.6,-7.8,29.64,South,185,2.0,4.0,78,0.00,,---,0.00,VWS V14.01,2013-02-09 09:10:00,
2013-02-09 00:12:00,-2.6,-7.8,29.63,South,179,2.0,2.0,78,0.00,,---,0.00,VWS V14.01,2013-02-09 09:12:00,
2013-02-09 00:14:00,-2.5,-7.4,29.63,South,179,2.0,4.0,79,0.00,,---,0.00,VWS V14.01,2013-02-09 09:14:00,
2013-02-09 00:15:00,-2.6,-7.8,29.63,South,179,1.0,5.0,78,0.00,,---,0.00,VWS V14.01,2013-02-09 09:15:00,
2013-02-09 00:17:00,-2.3,-7.2,29.63,South,177,2.0,2.0,79,0.00,,---,0.00,VWS V14.01,2013-02-09 09:17:00,
2013-02-09 00:19:00,-2.2,-7.1,29.63,South,177,2.0,4.0,79,0.00,,---,0.00,VWS V14.01,2013-02-09 09:19:00,
2013-02-09 00:20:00,-2.3,-7.2,29.63,South,177,2.0,5.0,79,0.00,,---,0.00,VWS V14.01,2013-02-09 09:20:00,
2013-02-09 00:22:00,-1.9,-6.6,29.63,SE,146,4.0,5.0,80,0.00,,---,0.00,VWS V14.01,2013-02-09 09:22:00,
2013-02-09 00:24:00,-1.9,-6.8,29.63,SE,146,5.0,6.0,79,0.00,,---,0.00,VWS V14.01,2013-02-09 09:24:00,
2013-02-09 00:25:00,-1.9,-6.8,29.63,SE,143,4.0,8.0,79,0.00,,---,0.00,VWS V14.01,2013-02-09 09:25:00,
2013-02-09 00:27:00,-1.8,-6.7,29.63,SE,143,0.0,1.0,79,0.00,,---,0.00,VWS V14.01,2013-02-09 09:27:00,
2013-02-09 00:29:00,-1.8,-6.7,29.63,SE,143,0.0,1.0,79,0.00,,---,0.00,VWS V14.01,2013-02-09 09:29:00,
2013-02-09 00:30:00,-1.8,-6.4,29.63,SE,143,0.0,1.0,80,0.00,,---,0.00,VWS V14.01,2013-02-09 09:30:00,
2013-02-09 00:32:00,-1.6,-6.2,29.62,SE,143,0.0,0.0,80,0.00,,---,0.00,VWS V14.01,2013-02-09 09:32:00,
2013-02-09 00:35:00,-1.5,-6.2,29.62,SE,143,1.0,2.0,80,0.00,,---,0.00,VWS V14.01,2013-02-09 09:35:00,
2013-02-09 00:37:00,-1.3,-6.0,29.62,SE,143,1.0,4.0,80,0.00,,---,0.00,VWS V14.01,2013-02-09 09:37:00,
2013-02-09 00:40:00,-1.2,-5.9,29.62,SE,143,0.0,5.0,80,0.00,,---,0.00,VWS V14.01,2013-02-09 09:40:00,
2013-02-09 00:42:00,-1.1,-5.8,29.62,SE,143,2.0,4.0,80,0.00,,---,0.00,VWS V14.01,2013-02-09 09:42:00,
2013-02-09 00:45:00,-1.0,-5.7,29.62,SE,143,0.0,4.0,80,0.00,,---,0.00,VWS V14.01,2013-02-09 09:45:00,
2013-02-09 00:48:00,-0.9,-5.6,29.62,SE,143,0.0,0.0,80,0.00,,---,0.00,VWS V14.01,2013-02-09 09:48:00,
2013-02-09 00:50:00,-0.8,-5.5,29.62,SE,144,0.0,4.0,80,0.00,,---,0.00,VWS V14.01,2013-02-09 09:50:00,
2013-02-09 00:51:00,-0.8,-5.7,29.62,SSE,155,1.0,6.0,79,0.00,,---,0.00,VWS V14.01,2013-02-09 09:51:00,
2013-02-09 00:53:00,-0.9,-6.1,29.61,South,171,0.0,7.0,78,0.00,,---,0.00,VWS V14.01,2013-02-09 09:53:00,
2013-02-09 00:55:00,-0.9,-6.1,29.61,SSW,209,1.0,7.0,78,0.00,,---,0.00,VWS V14.01,2013-02-09 09:55:00,
2013-02-09 00:56:00,-0.9,-6.1,29.61,SSW,209,0.0,7.0,78,0.00,,---,0.00,VWS V14.01,2013-02-09 09:56:00,
2013-02-09 00:58:00,-0.9,-6.1,29.61,SW,225,2.0,9.0,78,0.00,,---,0.00,VWS V14.01,2013-02-09 09:58:00,
2013-02-09 01:00:00,-1.0,-6.5,29.61,SW,225,2.0,9.0,77,0.00,,---,0.00,VWS V14.01,2013-02-09 10:00:00,
2013-02-09 01:01:00,-1.1,-6.6,29.61,SW,225,3.0,9.0,77,0.00,,---,0.00,VWS V14.01,2013-02-09 10:01:00,
2013-02-09 01:03:00,-1.2,-6.7,29.61,SW,225,0.0,4.0,77,0.00,,---,0.00,VWS V14.01,2013-02-09 10:03:00,
2013-02-09 01:05:00,-1.3,-6.8,29.61,SW,225,0.0,4.0,77,0.00,,---,0.00,VWS V14.01,2013-02-09 10:05:00,
2013-02-09 01:06:00,-1.3,-6.8,29.61,SW,225,0.0,4.0,77,0.00,,---,0.00,VWS V14.01,2013-02-09 10:06:00,
2013-02-09 01:08:00,-1.3,-6.5,29.61,SW,225,2.0,2.0,78,0.00,,---,0.00,VWS V14.01,2013-02-09 10:08:00,
2013-02-09 01:10:00,-1.3,-6.8,29.61,SW,225,0.0,4.0,77,0.00,,---,0.00,VWS V14.01,2013-02-09 10:10:00,
2013-02-09 01:11:00,-1.2,-6.4,29.61,SSE,163,2.0,5.0,78,0.00,,---,0.00,VWS V14.01,2013-02-09 10:11:00,
2013-02-09 01:12:00,-1.2,-6.4,29.61,SSE,161,1.0,5.0,78,0.00,,---,0.00,VWS V14.01,2013-02-09 10:12:00,
2013-02-09 01:14:00,-1.1,-6.3,29.61,ESE,113,2.0,8.0,78,0.00,,---,0.00,VWS V14.01,2013-02-09 10:14:00,
2013-02-09 01:15:00,-1.2,-6.4,29.61,SSE,161,1.0,5.0,78,0.00,,---,0.00,VWS V14.01,2013-02-09 10:15:00,
2013-02-09 01:16:00,-1.1,-6.3,29.61,ESE,113,7.0,9.0,78,0.00,,---,0.00,VWS V14.01,2013-02-09 10:16:00,
2013-02-09 01:17:00,-1.1,-6.3,29.61,ESE,114,4.0,9.0,78,0.00,,---,0.00,VWS V14.01,2013-02-09 10:17:00,
2013-02-09 01:19:00,-1.0,-6.2,29.60,ESE,114,2.0,5.0,78,0.00,,---,0.00,VWS V14.01,2013-02-09 10:19:00,
2013-02-09 01:20:00,-1.1,-6.3,29.61,ESE,114,4.0,9.0,78,0.00,,---,0.00,VWS V14.01,2013-02-09 10:20:00,
2013-02-09 01:21:00,-0.9,-6.1,29.60,ESE,114,0.0,5.0,78,0.00,,---,0.00,VWS V14.01,2013-02-09 10:21:00,
2013-02-09 01:22:00,-0.9,-6.1,29.60,ESE,117,4.0,6.0,78,0.00,,---,0.00,VWS V14.01,2013-02-09 10:22:00,
2013-02-09 01:24:00,-0.7,-5.9,29.60,ESE,123,0.0,5.0,78,0.00,,---,0.00,VWS V14.01,2013-02-09 10:24:00,
2013-02-09 01:25:00,-0.9,-6.1,29.60,ESE,117,2.0,6.0,78,0.00,,---,0.00,VWS V14.01,2013-02-09 10:25:00,
2013-02-09 01:26:00,-0.7,-5.9,29.59,ESE,123,0.0,5.0,78,0.00,,---,0.00,VWS V14.01,2013-02-09 10:26:00,
2013-02-09 01:27:00,-0.7,-6.2,29.59,ESE,123,2.0,5.0,77,0.00,,---,0.00,VWS V14.01,2013-02-09 10:27:00,
2013-02-09 01:29:00,-0.7,-5.9,29.59,ESE,123,0.0,5.0,78,0.00,,---,0.00,VWS V14.01,2013-02-09 10:29:00,
2013-02-09 01:30:00,-0.7,-6.2,29.59,ESE,123,2.0,5.0,77,0.00,,---,0.00,VWS V14.01,2013-02-09 10:30:00,
2013-02-09 01:32:00,-0.5,-5.7,29.59,ESE,123,0.0,5.0,78,0.00,,---,0.00,VWS V14.01,2013-02-09 10:32:00,
2013-02-09 01:35:00,-0.5,-5.7,29.59,WNW,284,5.0,9.0,78,0.00,,---,0.00,VWS V14.01,2013-02-09 10:35:00,
2013-02-09 01:37:00,-0.5,-5.7,29.59,WNW,284,5.0,12.0,78,0.00,,---,0.00,VWS V14.01,2013-02-09 10:37:00,
2013-02-09 01:38:00,-0.5,-6.0,29.59,WNW,290,3.0,12.0,77,0.00,,---,0.00,VWS V14.01,2013-02-09 10:38:00,
2013-02-09 01:40:00,-0.7,-6.2,29.59,WSW,250,3.0,12.0,77,0.00,,---,0.00,VWS V14.01,2013-02-09 10:40:00,
2013-02-09 01:42:00,-1.0,-6.7,29.59,West,265,4.0,8.0,76,0.00,,---,0.00,VWS V14.01,2013-02-09 10:42:00,
2013-02-09 01:43:00,-2.2,-9.0,29.59,WNW,302,5.0,8.0,72,0.00,,---,0.00,VWS V14.01,2013-02-09 10:43:00,
2013-02-09 01:45:00,-2.2,-8.7,29.59,NNW,335,2.0,8.0,73,0.00,,---,0.00,VWS V14.01,2013-02-09 10:45:00,
2013-02-09 01:47:00,-2.0,-8.2,29.59,North,360,4.0,4.0,74,0.00,,---,0.00,VWS V14.01,2013-02-09 10:47:00,
2013-02-09 01:48:00,-0.9,-6.1,29.59,West,265,0.0,4.0,78,0.00,,---,0.00,VWS V14.01,2013-02-09 10:48:00,
2013-02-09 01:50:00,-0.8,-6.0,29.59,West,281,4.0,5.0,78,0.00,,---,0.00,VWS V14.01,2013-02-09 10:50:00,
2013-02-09 01:52:00,-0.6,-5.5,29.59,West,260,5.0,6.0,79,0.00,,---,0.00,VWS V14.01,2013-02-09 10:52:00,
2013-02-09 01:53:00,-0.7,-5.6,29.59,West,263,2.0,6.0,79,0.00,,---,0.00,VWS V14.01,2013-02-09 10:53:00,
2013-02-09 01:55:00,-0.8,-6.3,29.59,WSW,250,2.0,7.0,77,0.00,,---,0.00,VWS V14.01,2013-02-09 10:55:00,
2013-02-09 01:57:00,-0.8,-6.3,29.59,WSW,254,0.0,3.0,77,0.00,,---,0.00,VWS V14.01,2013-02-09 10:57:00,
2013-02-09 01:58:00,-0.8,-6.3,29.59,WSW,254,1.0,3.0,77,0.00,,---,0.00,VWS V14.01,2013-02-09 10:58:00,
2013-02-09 02:00:00,-0.7,-5.9,29.59,ESE,123,5.0,6.0,78,0.00,,---,0.00,VWS V14.01,2013-02-09 11:00:00,
2013-02-09 02:03:00,-0.7,-5.9,29.59,ESE,116,5.0,9.0,78,0.00,,---,0.00,VWS V14.01,2013-02-09 11:03:00,
2013-02-09 02:04:00,-0.7,-5.9,29.59,ESE,116,0.0,9.0,78,0.00,,---,0.00,VWS V14.01,2013-02-09 11:04:00,
2013-02-09 02:05:00,-0.7,-5.9,29.59,ESE,104,5.0,11.0,78,0.00,,---,0.00,VWS V14.01,2013-02-09 11:05:00,
2013-02-09 02:08:00,-0.6,-5.8,29.58,SE,128,1.0,4.0,78,0.00,,---,0.00,VWS V14.01,2013-02-09 11:08:00,
2013-02-09 02:09:00,-0.6,-5.8,29.58,SE,128,0.0,4.0,78,0.00,,---,0.00,VWS V14.01,2013-02-09 11:09:00,
2013-02-09 02:10:00,-0.5,-5.4,29.58,SE,128,0.0,5.0,79,0.00,,---,0.00,VWS V14.01,2013-02-09 11:10:00,
2013-02-09 02:13:00,-0.5,-5.4,29.58,SE,128,0.0,0.0,79,0.00,,---,0.00,VWS V14.01,2013-02-09 11:13:00,
2013-02-09 02:14:00,-0.5,-5.4,29.58,SE,128,0.0,0.0,79,0.00,,---,0.00,VWS V14.01,2013-02-09 11:14:00,
2013-02-09 02:15:00,-0.4,-5.3,29.58,SE,128,2.0,2.0,79,0.00,,---,0.00,VWS V14.01,2013-02-09 11:15:00,
2013-02-09 02:18:00,-0.2,-5.2,29.58,SE,128,1.0,2.0,79,0.00,,---,0.00,VWS V14.01,2013-02-09 11:18:00,
2013-02-09 02:19:00,-0.1,-4.8,29.58,SE,128,4.0,4.0,80,0.00,,---,0.00,VWS V14.01,2013-02-09 11:19:00,
2013-02-09 02:20:00,-0.1,-4.7,29.58,SE,127,4.0,6.0,80,0.00,,---,0.00,VWS V14.01,2013-02-09 11:20:00,
2013-02-09 02:23:00,-0.1,-5.1,29.58,ESE,112,4.0,9.0,79,0.00,,---,0.00,VWS V14.01,2013-02-09 11:23:00,
2013-02-09 02:24:00,-0.1,-5.1,29.58,ESE,116,2.0,9.0,79,0.00,,---,0.00,VWS V14.01,2013-02-09 11:24:00,
2013-02-09 02:25:00,-0.1,-4.7,29.58,ESE,114,7.0,11.0,80,0.00,,---,0.00,VWS V14.01,2013-02-09 11:25:00,
2013-02-09 02:26:00,-0.1,-5.1,29.58,SE,130,2.0,9.0,79,0.00,,---,0.00,VWS V14.01,2013-02-09 11:26:00,
2013-02-09 02:29:00,-0.1,-5.1,29.58,SE,130,5.0,5.0,79,0.00,,---,0.00,VWS V14.01,2013-02-09 11:29:00,
2013-02-09 02:30:00,-0.1,-5.1,29.58,SE,130,1.0,9.0,79,0.00,,---,0.00,VWS V14.01,2013-02-09 11:30:00,
2013-02-09 02:31:00,-0.1,-4.7,29.58,SE,130,4.0,7.0,80,0.00,,---,0.00,VWS V14.01,2013-02-09 11:31:00,
2013-02-09 02:34:00,0.1,-4.6,29.58,SE,130,2.0,6.0,80,0.00,,---,0.00,VWS V14.01,2013-02-09 11:34:00,
2013-02-09 02:35:00,0.1,-4.6,29.58,SE,130,4.0,7.0,80,0.00,,---,0.00,VWS V14.01,2013-02-09 11:35:00,
2013-02-09 02:36:00,0.2,-4.5,29.57,SE,130,2.0,6.0,80,0.00,,---,0.00,VWS V14.01,2013-02-09 11:36:00,
2013-02-09 02:39:00,0.3,-4.4,29.57,SE,130,0.0,1.0,80,0.00,,---,0.00,VWS V14.01,2013-02-09 11:39:00,
2013-02-09 02:40:00,0.3,-4.4,29.57,SE,130,0.0,1.0,80,0.00,,---,0.00,VWS V14.01,2013-02-09 11:40:00,
2013-02-09 02:41:00,0.3,-4.4,29.57,SSE,165,1.0,6.0,80,0.00,,---,0.00,VWS V14.01,2013-02-09 11:41:00,
2013-02-09 02:44:00,0.4,-4.3,29.57,SSE,165,0.0,1.0,80,0.00,,---,0.00,VWS V14.01,2013-02-09 11:44:00,
2013-02-09 02:45:00,0.4,-4.3,29.57,SSE,165,0.0,1.0,80,0.00,,---,0.00,VWS V14.01,2013-02-09 11:45:00,
2013-02-09 02:46:00,0.5,-3.9,29.58,ESE,119,5.0,7.0,81,0.00,,---,0.00,VWS V14.01,2013-02-09 11:46:00,
2013-02-09 02:50:00,0.6,-3.8,29.58,ESE,119,1.0,4.0,81,0.00,,---,0.00,VWS V14.01,2013-02-09 11:50:00,
2013-02-09 02:51:00,0.7,-4.0,29.57,ESE,120,6.0,8.0,80,0.00,,---,0.00,VWS V14.01,2013-02-09 11:51:00,
2013-02-09 02:55:00,0.7,-4.0,29.57,ESE,120,0.0,4.0,80,0.00,,---,0.00,VWS V14.01,2013-02-09 11:55:00,
2013-02-09 02:57:00,0.8,-3.9,29.57,ESE,120,0.0,0.0,80,0.00,,---,0.00,VWS V14.01,2013-02-09 11:57:00,
2013-02-09 03:00:00,0.9,-3.8,29.57,NE,37,2.0,6.0,80,0.00,,---,0.00,VWS V14.01,2013-02-09 12:00:00,
2013-02-09 03:01:00,0.9,-3.8,29.57,NE,37,2.0,6.0,80,0.00,,---,0.00,VWS V14.01,2013-02-09 12:01:00,
2013-02-09 03:02:00,0.9,-3.8,29.57,NE,37,0.0,2.0,80,0.00,,---,0.00,VWS V14.01,2013-02-09 12:02:00,
2013-02-09 03:05:00,0.8,-4.2,29.56,NNW,342,3.0,6.0,79,0.00,,---,0.00,VWS V14.01,2013-02-09 12:05:00,
2013-02-09 03:06:00,0.8,-4.4,29.56,NNW,342,0.0,6.0,78,0.00,,---,0.00,VWS V14.01,2013-02-09 12:06:00,
2013-02-09 03:08:00,0.6,-4.6,29.56,NW,323,0.0,6.0,78,0.00,,---,0.00,VWS V14.01,2013-02-09 12:08:00,
2013-02-09 03:10:00,0.4,-4.8,29.56,NW,322,1.0,6.0,78,0.00,,---,0.00,VWS V14.01,2013-02-09 12:10:00,
2013-02-09 03:11:00,0.4,-4.8,29.56,NW,322,0.0,6.0,78,0.00,,---,0.00,VWS V14.01,2013-02-09 12:11:00,
2013-02-09 03:13:00,0.4,-4.6,29.56,NW,322,0.0,0.0,79,0.00,,---,0.00,VWS V14.01,2013-02-09 12:13:00,
2013-02-09 03:15:00,0.4,-4.8,29.56,NW,322,0.0,6.0,78,0.00,,---,0.00,VWS V14.01,2013-02-09 12:15:00,
2013-02-09 03:16:00,0.4,-4.3,29.55,NW,322,2.0,2.0,80,0.00,,---,0.00,VWS V14.01,2013-02-09 12:16:00,
2013-02-09 03:18:00,0.4,-4.3,29.55,NW,322,3.0,5.0,80,0.00,,---,0.00,VWS V14.01,2013-02-09 12:18:00,
2013-02-09 03:20:00,0.5,-4.2,29.55,NW,322,0.0,2.0,80,0.00,,---,0.00,VWS V14.01,2013-02-09 12:20:00,
2013-02-09 03:21:00,0.5,-4.2,29.55,NNE,32,2.0,5.0,80,0.00,,---,0.00,VWS V14.01,2013-02-09 12:21:00,
2013-02-09 03:23:00,0.4,-4.3,29.55,East,88,7.0,7.0,80,0.00,,---,0.00,VWS V14.01,2013-02-09 12:23:00,
2013-02-09 03:25:00,0.5,-4.2,29.55,ENE,61,2.0,6.0,80,0.00,,---,0.00,VWS V14.01,2013-02-09 12:25:00,
2013-02-09 03:26:00,0.2,-4.5,29.55,ESE,105,4.0,8.0,80,0.00,,---,0.00,VWS V14.01,2013-02-09 12:26:00,
2013-02-09 03:29:00,0.3,-4.4,29.55,ESE,107,2.0,7.0,80,0.00,,---,0.00,VWS V14.01,2013-02-09 12:29:00,
2013-02-09 03:30:00,0.3,-4.4,29.55,ESE,106,6.0,9.0,80,0.00,,---,0.00,VWS V14.01,2013-02-09 12:30:00,
2013-02-09 03:31:00,0.4,-4.3,29.54,ESE,107,1.0,7.0,80,0.00,,---,0.00,VWS V14.01,2013-02-09 12:31:00,
2013-02-09 03:32:00,0.4,-4.3,29.54,ESE,107,0.0,0.0,80,0.00,,---,0.00,VWS V14.01,2013-02-09 12:32:00,
2013-02-09 03:34:00,0.7,-3.8,29.54,ESE,110,1.0,7.0,81,0.00,,---,0.00,VWS V14.01,2013-02-09 12:34:00,
2013-02-09 03:35:00,0.4,-4.3,29.54,ESE,107,0.0,7.0,80,0.00,,---,0.00,VWS V14.01,2013-02-09 12:35:00,
2013-02-09 03:36:00,0.9,-3.5,29.54,ESE,110,1.0,7.0,81,0.00,,---,0.00,VWS V14.01,2013-02-09 12:36:00,
2013-02-09 03:37:00,0.9,-3.5,29.54,ESE,110,1.0,7.0,81,0.00,,---,0.00,VWS V14.01,2013-02-09 12:37:00,
2013-02-09 03:39:00,1.0,-3.5,29.54,ESE,110,2.0,4.0,81,0.00,,---,0.00,VWS V14.01,2013-02-09 12:39:00,
2013-02-09 03:40:00,0.9,-3.5,29.54,ESE,110,1.0,7.0,81,0.00,,---,0.00,VWS V14.01,2013-02-09 12:40:00,
2013-02-09 03:42:00,1.3,-3.2,29.54,ESE,114,4.0,5.0,81,0.00,,---,0.00,VWS V14.01,2013-02-09 12:42:00,
2013-02-09 03:44:00,1.4,-4.4,29.54,SW,224,0.0,6.0,76,0.00,,---,0.00,VWS V14.01,2013-02-09 12:44:00,
2013-02-09 03:45:00,1.3,-3.2,29.54,ESE,114,5.0,9.0,81,0.00,,---,0.00,VWS V14.01,2013-02-09 12:45:00,
2013-02-09 03:47:00,1.4,-4.7,29.54,NW,321,4.0,4.0,75,0.00,,---,0.00,VWS V14.01,2013-02-09 12:47:00,
2013-02-09 03:49:00,1.8,-2.9,29.53,ESE,115,0.0,4.0,80,0.00,,---,0.00,VWS V14.01,2013-02-09 12:49:00,
2013-02-09 03:50:00,1.4,-4.7,29.54,NW,321,4.0,6.0,75,0.00,,---,0.00,VWS V14.01,2013-02-09 12:50:00,
2013-02-09 03:52:00,1.9,-2.8,29.53,ESE,115,0.0,0.0,80,0.00,,---,0.00,VWS V14.01,2013-02-09 12:52:00,
2013-02-09 03:55:00,2.0,-2.7,29.53,ESE,115,2.0,4.0,80,0.00,,---,0.00,VWS V14.01,2013-02-09 12:55:00,
2013-02-09 03:57:00,2.0,-3.0,29.53,ESE,113,4.0,5.0,79,0.00,,---,0.00,VWS V14.01,2013-02-09 12:57:00,
2013-02-09 03:58:00,2.0,-3.0,29.53,ESE,114,5.0,5.0,79,0.00,,---,0.00,VWS V14.01,2013-02-09 12:58:00,
2013-02-09 04:00:00,2.0,-3.0,29.53,ESE,113,0.0,5.0,79,0.00,,---,0.00,VWS V14.01,2013-02-09 13:00:00,
2013-02-09 04:02:00,2.0,-3.0,29.53,ESE,114,0.0,5.0,79,0.00,,---,0.00,VWS V14.01,2013-02-09 13:02:00,
2013-02-09 04:03:00,2.0,-3.0,29.52,ESE,114,2.0,5.0,79,0.00,,---,0.00,VWS V14.01,2013-02-09 13:03:00,
2013-02-09 04:05:00,2.2,-2.5,29.53,ESE,113,0.0,5.0,80,0.00,,---,0.00,VWS V14.01,2013-02-09 13:05:00,
2013-02-09 04:08:00,2.4,-2.3,29.53,SE,135,1.0,6.0,80,0.00,,---,0.00,VWS V14.01,2013-02-09 13:08:00,
2013-02-09 04:10:00,2.6,-2.2,29.53,NW,317,4.0,9.0,80,0.00,,---,0.00,VWS V14.01,2013-02-09 13:10:00,
2013-02-09 04:13:00,2.6,-2.7,29.53,NW,307,9.0,11.0,78,0.00,,---,0.00,VWS V14.01,2013-02-09 13:13:00,
2013-02-09 04:15:00,2.6,-2.4,29.53,NW,309,4.0,9.0,79,0.00,,---,0.00,VWS V14.01,2013-02-09 13:15:00,
2013-02-09 04:16:00,2.2,-3.3,29.52,WNW,296,2.0,11.0,77,0.00,,---,0.00,VWS V14.01,2013-02-09 13:16:00,
2013-02-09 04:18:00,2.0,-3.5,29.52,NW,307,1.0,6.0,77,0.00,,---,0.00,VWS V14.01,2013-02-09 13:18:00,
2013-02-09 04:20:00,2.1,-3.4,29.52,WNW,301,3.0,11.0,77,0.00,,---,0.00,VWS V14.01,2013-02-09 13:20:00,
2013-02-09 04:21:00,1.9,-3.4,29.52,NW,306,1.0,6.0,78,0.00,,---,0.00,VWS V14.01,2013-02-09 13:21:00,
2013-02-09 04:23:00,1.9,-3.4,29.52,NW,317,5.0,8.0,78,0.00,,---,0.00,VWS V14.01,2013-02-09 13:23:00,
2013-02-09 04:24:00,2.0,-3.0,29.52,West,265,4.0,10.0,79,0.00,,---,0.00,VWS V14.01,2013-02-09 13:24:00,
2013-02-09 04:25:00,1.9,-3.4,29.52,NW,306,0.0,6.0,78,0.00,,---,0.00,VWS V14.01,2013-02-09 13:25:00,
2013-02-09 04:26:00,2.3,-2.4,29.51,NW,306,2.0,11.0,80,0.00,,---,0.00,VWS V14.01,2013-02-09 13:26:00,
2013-02-09 04:28:00,2.4,-2.6,29.52,WNW,282,5.0,9.0,79,0.00,,---,0.00,VWS V14.01,2013-02-09 13:28:00,
2013-02-09 04:29:00,2.4,-2.6,29.52,WNW,284,5.0,9.0,79,0.00,,---,0.00,VWS V14.01,2013-02-09 13:29:00,
2013-02-09 04:30:00,2.4,-2.3,29.51,NNW,327,5.0,11.0,80,0.00,,---,0.00,VWS V14.01,2013-02-09 13:30:00,
2013-02-09 04:31:00,2.1,-3.2,29.52,West,279,4.0,10.0,78,0.00,,---,0.00,VWS V14.01,2013-02-09 13:31:00,
2013-02-09 04:34:00,1.8,-3.5,29.51,WNW,300,6.0,10.0,78,0.00,,---,0.00,VWS V14.01,2013-02-09 13:34:00,
2013-02-09 04:35:00,2.1,-3.2,29.52,West,276,10.0,10.0,78,0.00,,---,0.00,VWS V14.01,2013-02-09 13:35:00,
2013-02-09 04:37:00,1.4,-4.1,29.51,WNW,287,4.0,10.0,77,0.00,,---,0.00,VWS V14.01,2013-02-09 13:37:00,
2013-02-09 04:39:00,0.2,-5.3,29.51,NNW,340,9.0,10.0,77,0.00,,---,0.00,VWS V14.01,2013-02-09 13:39:00,
2013-02-09 04:40:00,1.4,-4.1,29.51,WNW,287,3.0,10.0,77,0.00,,---,0.00,VWS V14.01,2013-02-09 13:40:00,
2013-02-09 04:42:00,0.6,-5.2,29.51,NNW,345,5.0,14.0,76,0.00,,---,0.00,VWS V14.01,2013-02-09 13:42:00,
2013-02-09 04:44:00,0.6,-5.2,29.51,North,355,9.0,11.0,76,0.00,,---,0.00,VWS V14.01,2013-02-09 13:44:00,
2013-02-09 04:45:00,0.6,-5.2,29.51,NNW,328,5.0,14.0,76,0.00,,---,0.00,VWS V14.01,2013-02-09 13:45:00,
2013-02-09 04:47:00,0.6,-5.2,29.50,NW,318,7.0,7.0,76,0.00,,---,0.00,VWS V14.01,2013-02-09 13:47:00,
2013-02-09 04:49:00,0.8,-5.0,29.50,NNW,336,4.0,11.0,76,0.00,,---,0.00,VWS V14.01,2013-02-09 13:49:00,
2013-02-09 04:50:00,0.6,-5.2,29.51,North,350,7.0,11.0,76,0.00,,---,0.00,VWS V14.01,2013-02-09 13:50:00,
2013-02-09 04:52:00,0.7,-5.1,29.50,NW,323,6.0,7.0,76,0.00,,---,0.00,VWS V14.01,2013-02-09 13:52:00,
2013-02-09 04:54:00,0.9,-4.6,29.50,NNW,346,9.0,9.0,77,0.00,,---,0.00,VWS V14.01,2013-02-09 13:54:00,
2013-02-09 04:55:00,0.9,-4.6,29.50,NW,312,9.0,9.0,77,0.00,,---,0.00,VWS V14.01,2013-02-09 13:55:00,
2013-02-09 04:57:00,1.0,-4.5,29.50,NNW,330,5.0,10.0,77,0.00,,---,0.00,VWS V14.01,2013-02-09 13:57:00,
2013-02-09 05:00:00,1.2,-4.1,29.50,North,360,7.0,10.0,78,0.00,,---,0.00,VWS V14.01,2013-02-09 14:00:00,
2013-02-09 05:02:00,1.3,-4.2,29.50,NNW,338,9.0,12.0,77,0.00,,---,0.00,VWS V14.01,2013-02-09 14:02:00,
2013-02-09 05:05:00,0.9,-4.6,29.50,NW,304,6.0,12.0,77,0.00,,---,0.00,VWS V14.01,2013-02-09 14:05:00,
2013-02-09 05:08:00,0.5,-5.0,29.50,NW,325,4.0,9.0,77,0.00,,---,0.00,VWS V14.01,2013-02-09 14:08:00,
2013-02-09 05:10:00,0.4,-5.1,29.49,NW,323,12.0,12.0,77,0.00,,---,0.00,VWS V14.01,2013-02-09 14:10:00,
2013-02-09 05:11:00,0.4,-4.8,29.49,NW,325,4.0,12.0,78,0.00,,---,0.00,VWS V14.01,2013-02-09 14:11:00,
2013-02-09 05:13:00,0.3,-4.9,29.49,WNW,302,3.0,12.0,78,0.00,,---,0.00,VWS V14.01,2013-02-09 14:13:00,
2013-02-09 05:15:00,0.5,-4.5,29.49,NW,309,5.0,12.0,79,0.00,,---,0.00,VWS V14.01,2013-02-09 14:15:00,
2013-02-09 05:16:00,0.5,-4.5,29.49,NW,311,6.0,12.0,79,0.00,,---,0.00,VWS V14.01,2013-02-09 14:16:00,
2013-02-09 05:18:00,0.9,-3.8,29.48,NNW,328,6.0,6.0,80,0.00,,---,0.00,VWS V14.01,2013-02-09 14:18:00,
2013-02-09 05:20:00,0.7,-4.3,29.49,WNW,300,3.0,12.0,79,0.00,,---,0.00,VWS V14.01,2013-02-09 14:20:00,
2013-02-09 05:21:00,1.5,-3.2,29.48,NNW,330,8.0,10.0,80,0.00,,---,0.00,VWS V14.01,2013-02-09 14:21:00,
2013-02-09 05:23:00,2.2,-2.3,29.48,NNW,336,9.0,12.0,81,0.00,,---,0.00,VWS V14.01,2013-02-09 14:23:00,
2013-02-09 05:25:00,1.9,-2.6,29.48,NW,317,9.0,10.0,81,0.00,,---,0.00,VWS V14.01,2013-02-09 14:25:00,
2013-02-09 05:26:00,1.9,-3.4,29.48,NNW,330,8.0,12.0,78,0.00,,---,0.00,VWS V14.01,2013-02-09 14:26:00,
2013-02-09 05:28:00,1.8,-3.5,29.48,North,9,3.0,9.0,78,0.00,,---,0.00,VWS V14.01,2013-02-09 14:28:00,
2013-02-09 05:30:00,1.8,-3.5,29.48,North,350,7.0,12.0,78,0.00,,---,0.00,VWS V14.01,2013-02-09 14:30:00,
2013-02-09 05:31:00,1.7,-3.6,29.48,NNW,348,7.0,11.0,78,0.00,,---,0.00,VWS V14.01,2013-02-09 14:31:00,
2013-02-09 05:33:00,1.7,-3.3,29.48,NW,316,5.0,9.0,79,0.00,,---,0.00,VWS V14.01,2013-02-09 14:33:00,
2013-02-09 05:35:00,1.7,-3.6,29.48,NW,323,4.0,11.0,78,0.00,,---,0.00,VWS V14.01,2013-02-09 14:35:00,
2013-02-09 05:36:00,1.9,-3.4,29.48,NW,323,5.0,9.0,78,0.00,,---,0.00,VWS V14.01,2013-02-09 14:36:00,
2013-02-09 05:38:00,3.0,-1.5,29.48,West,280,1.0,5.0,81,0.00,,---,0.00,VWS V14.01,2013-02-09 14:38:00,
2013-02-09 05:40:00,1.9,-3.4,29.48,NW,323,5.0,9.0,78,0.00,,---,0.00,VWS V14.01,2013-02-09 14:40:00,
2013-02-09 05:41:00,3.1,-1.4,29.48,WNW,289,2.0,6.0,81,0.00,,---,0.00,VWS V14.01,2013-02-09 14:41:00,
2013-02-09 05:43:00,3.2,-1.0,29.48,WNW,284,3.0,4.0,82,0.00,,---,0.00,VWS V14.01,2013-02-09 14:43:00,
2013-02-09 05:45:00,3.1,-1.4,29.48,WNW,289,2.0,6.0,81,0.00,,---,0.00,VWS V14.01,2013-02-09 14:45:00,
2013-02-09 05:46:00,3.3,-1.2,29.48,NNW,334,1.0,10.0,81,0.00,,---,0.00,VWS V14.01,2013-02-09 14:46:00,
2013-02-09 05:47:00,3.3,-1.2,29.48,NNW,334,0.0,10.0,81,0.00,,---,0.00,VWS V14.01,2013-02-09 14:47:00,
2013-02-09 05:48:00,3.3,-1.2,29.48,NNW,334,0.0,3.0,81,0.00,,---,0.00,VWS V14.01,2013-02-09 14:48:00,
2013-02-09 05:50:00,3.3,-1.2,29.48,NNW,334,0.0,10.0,81,0.00,,---,0.00,VWS V14.01,2013-02-09 14:50:00,
2013-02-09 05:52:00,3.4,-1.1,29.48,NNW,331,4.0,4.0,81,0.00,,---,0.00,VWS V14.01,2013-02-09 14:52:00,
2013-02-09 05:54:00,3.3,-1.5,29.47,NW,326,2.0,6.0,80,0.00,,---,0.00,VWS V14.01,2013-02-09 14:54:00,
2013-02-09 05:55:00,3.4,-1.1,29.48,NNW,331,4.0,4.0,81,0.00,,---,0.00,VWS V14.01,2013-02-09 14:55:00,
2013-02-09 05:57:00,3.3,-1.5,29.47,WNW,298,4.0,5.0,80,0.00,,---,0.00,VWS V14.01,2013-02-09 14:57:00,
2013-02-09 05:59:00,3.2,-1.8,29.47,WNW,301,2.0,8.0,79,0.00,,---,0.00,VWS V14.01,2013-02-09 14:59:00,
2013-02-09 06:00:00,3.3,-1.5,29.47,WNW,297,5.0,6.0,80,0.00,,---,0.00,VWS V14.01,2013-02-09 15:00:00,
2013-02-09 06:02:00,3.1,-1.7,29.47,WNW,294,4.0,6.0,80,0.00,,---,0.00,VWS V14.01,2013-02-09 15:02:00,
2013-02-09 06:03:00,3.1,-1.7,29.47,West,280,5.0,6.0,80,0.00,,---,0.00,VWS V14.01,2013-02-09 15:03:00,
2013-02-09 06:04:00,3.2,-1.6,29.46,WNW,290,5.0,7.0,80,0.00,,---,0.00,VWS V14.01,2013-02-09 15:04:00,
2013-02-09 06:05:00,3.0,-1.8,29.47,WNW,286,4.0,8.0,80,0.00,,---,0.00,VWS V14.01,2013-02-09 15:05:00,
2013-02-09 06:07:00,3.4,-1.1,29.46,NW,308,6.0,7.0,81,0.00,,---,0.00,VWS V14.01,2013-02-09 15:07:00,
2013-02-09 06:08:00,3.4,-1.1,29.46,WNW,294,8.0,8.0,81,0.00,,---,0.00,VWS V14.01,2013-02-09 15:08:00,
2013-02-09 06:09:00,3.5,-1.0,29.46,WNW,282,4.0,9.0,81,0.00,,---,0.00,VWS V14.01,2013-02-09 15:09:00,
2013-02-09 06:10:00,3.4,-1.1,29.46,WNW,290,0.0,7.0,81,0.00,,---,0.00,VWS V14.01,2013-02-09 15:10:00,
2013-02-09 06:12:00,3.7,-1.1,29.45,WNW,294,4.0,7.0,80,0.00,,---,0.00,VWS V14.01,2013-02-09 15:12:00,
2013-02-09 06:13:00,3.7,-1.1,29.45,WNW,298,7.0,10.0,80,0.00,,---,0.00,VWS V14.01,2013-02-09 15:13:00,
2013-02-09 06:14:00,3.7,-1.1,29.45,West,280,6.0,11.0,80,0.00,,---,0.00,VWS V14.01,2013-02-09 15:14:00,
2013-02-09 06:15:00,3.7,-1.1,29.45,WNW,300,5.0,11.0,80,0.00,,---,0.00,VWS V14.01,2013-02-09 15:15:00,
2013-02-09 06:18:00,3.7,-1.1,29.45,West,277,3.0,8.0,80,0.00,,---,0.00,VWS V14.01,2013-02-09 15:18:00,
2013-02-09 06:19:00,3.6,-1.4,29.45,WNW,300,2.0,8.0,79,0.00,,---,0.00,VWS V14.01,2013-02-09 15:19:00,
2013-02-09 06:20:00,3.8,-1.0,29.45,WNW,302,4.0,14.0,80,0.00,,---,0.00,VWS V14.01,2013-02-09 15:20:00,
2013-02-09 06:23:00,3.3,-1.7,29.45,WNW,299,5.0,7.0,79,0.00,,---,0.00,VWS V14.01,2013-02-09 15:23:00,
2013-02-09 06:24:00,3.4,-1.4,29.45,WNW,282,13.0,13.0,80,0.00,,---,0.00,VWS V14.01,2013-02-09 15:24:00,
2013-02-09 06:25:00,3.3,-1.7,29.45,WNW,286,2.0,10.0,79,0.00,,---,0.00,VWS V14.01,2013-02-09 15:25:00,
2013-02-09 06:28:00,3.3,-1.5,29.45,WNW,292,3.0,7.0,80,0.00,,---,0.00,VWS V14.01,2013-02-09 15:28:00,
2013-02-09 06:29:00,3.2,-1.6,29.45,NW,304,4.0,8.0,80,0.00,,---,0.00,VWS V14.01,2013-02-09 15:29:00,
2013-02-09 06:30:00,3.3,-1.5,29.45,WNW,293,5.0,13.0,80,0.00,,---,0.00,VWS V14.01,2013-02-09 15:30:00,
2013-02-09 06:33:00,2.9,-2.1,29.45,NW,310,5.0,6.0,79,0.00,,---,0.00,VWS V14.01,2013-02-09 15:33:00,
2013-02-09 06:34:00,2.9,-1.9,29.45,WNW,303,3.0,9.0,80,0.00,,---,0.00,VWS V14.01,2013-02-09 15:34:00,
2013-02-09 06:35:00,3.0,-2.0,29.45,WNW,296,5.0,8.0,79,0.00,,---,0.00,VWS V14.01,2013-02-09 15:35:00,
2013-02-09 06:38:00,3.1,-1.7,29.44,West,280,6.0,9.0,80,0.00,,---,0.00,VWS V14.01,2013-02-09 15:38:00,
2013-02-09 06:39:00,3.1,-1.7,29.44,NW,304,5.0,13.0,80,0.00,,---,0.00,VWS V14.01,2013-02-09 15:39:00,
2013-02-09 06:40:00,3.1,-1.7,29.44,West,270,2.0,13.0,80,0.00,,---,0.00,VWS V14.01,2013-02-09 15:40:00,
2013-02-09 06:43:00,2.9,-2.1,29.44,WNW,302,10.0,11.0,79,0.00,,---,0.00,VWS V14.01,2013-02-09 15:43:00,
2013-02-09 06:44:00,2.9,-2.1,29.44,WNW,290,6.0,12.0,79,0.00,,---,0.00,VWS V14.01,2013-02-09 15:44:00,
2013-02-09 06:45:00,2.9,-2.1,29.44,WNW,296,3.0,12.0,79,0.00,,---,0.00,VWS V14.01,2013-02-09 15:45:00,
2013-02-09 06:48:00,3.0,-1.8,29.43,West,259,6.0,6.0,80,0.00,,---,0.00,VWS V14.01,2013-02-09 15:48:00,
2013-02-09 06:49:00,3.1,-1.7,29.43,WNW,292,7.0,7.0,80,0.00,,---,0.00,VWS V14.01,2013-02-09 15:49:00,
2013-02-09 06:50:00,3.2,-1.6,29.43,West,279,1.0,8.0,80,0.00,,---,0.00,VWS V14.01,2013-02-09 15:50:00,
2013-02-09 06:53:00,3.6,-0.9,29.43,West,278,1.0,6.0,81,0.00,,---,0.00,VWS V14.01,2013-02-09 15:53:00,
2013-02-09 06:54:00,3.7,-0.8,29.43,WNW,282,4.0,6.0,81,0.00,,---,0.00,VWS V14.01,2013-02-09 15:54:00,
2013-02-09 06:55:00,3.8,-0.7,29.44,West,281,3.0,10.0,81,0.00,,---,0.00,VWS V14.01,2013-02-09 15:55:00,
2013-02-09 06:58:00,4.2,-0.3,29.43,WNW,296,6.0,12.0,81,0.00,,---,0.00,VWS V14.01,2013-02-09 15:58:00,
2013-02-09 06:59:00,4.2,-0.3,29.43,WNW,295,6.0,12.0,81,0.00,,---,0.00,VWS V14.01,2013-02-09 15:59:00,
2013-02-09 07:00:00,4.2,-0.3,29.43,WNW,292,3.0,12.0,81,0.00,,---,0.00,VWS V14.01,2013-02-09 16:00:00,
2013-02-09 07:01:00,4.2,-0.6,29.43,WNW,290,3.0,12.0,80,0.00,,---,0.00,VWS V14.01,2013-02-09 16:01:00,
2013-02-09 07:03:00,4.1,-0.7,29.43,WNW,294,5.0,7.0,80,0.00,,---,0.00,VWS V14.01,2013-02-09 16:03:00,
2013-02-09 07:05:00,4.1,-0.7,29.43,WNW,290,4.0,7.0,80,0.00,,---,0.00,VWS V14.01,2013-02-09 16:05:00,
2013-02-09 07:06:00,4.2,-0.6,29.43,WNW,290,3.0,7.0,80,0.00,,---,0.00,VWS V14.01,2013-02-09 16:06:00,
2013-02-09 07:08:00,3.7,-1.9,29.43,NNW,329,7.0,10.0,77,0.00,,---,0.00,VWS V14.01,2013-02-09 16:08:00,
2013-02-09 07:10:00,3.7,-1.9,29.42,NW,325,4.0,10.0,77,0.00,,---,0.00,VWS V14.01,2013-02-09 16:10:00,
2013-02-09 07:11:00,3.8,-1.8,29.42,NNW,348,9.0,10.0,77,0.00,,---,0.00,VWS V14.01,2013-02-09 16:11:00,
2013-02-09 07:13:00,3.8,-1.8,29.42,NNW,329,6.0,9.0,77,0.00,,---,0.00,VWS V14.01,2013-02-09 16:13:00,
2013-02-09 07:15:00,3.7,-2.2,29.42,NNW,343,12.0,12.0,76,0.00,,---,0.00,VWS V14.01,2013-02-09 16:15:00,
2013-02-09 07:17:00,3.2,-2.9,29.42,North,5,8.0,12.0,75,0.00,,---,0.00,VWS V14.01,2013-02-09 16:17:00,
2013-02-09 07:19:00,3.0,-2.8,29.42,NNE,19,6.0,12.0,76,0.00,,---,0.00,VWS V14.01,2013-02-09 16:19:00,
2013-02-09 07:20:00,3.0,-2.6,29.42,NNW,342,7.0,12.0,77,0.00,,---,0.00,VWS V14.01,2013-02-09 16:20:00,
2013-02-09 07:21:00,3.0,-2.6,29.42,NNW,347,8.0,12.0,77,0.00,,---,0.00,VWS V14.01,2013-02-09 16:21:00,
2013-02-09 07:22:00,3.0,-2.6,29.42,NW,315,8.0,12.0,77,0.00,,---,0.00,VWS V14.01,2013-02-09 16:22:00,
2013-02-09 07:24:00,3.1,-2.5,29.41,NNW,347,8.0,12.0,77,0.00,,---,0.00,VWS V14.01,2013-02-09 16:24:00,
2013-02-09 07:25:00,3.2,-2.1,29.41,North,10,9.0,15.0,78,0.00,,---,0.00,VWS V14.01,2013-02-09 16:25:00,
2013-02-09 07:26:00,3.2,-2.1,29.41,North,5,11.0,15.0,78,0.00,,---,0.00,VWS V14.01,2013-02-09 16:26:00,
2013-02-09 07:27:00,3.2,-2.4,29.41,North,5,9.0,15.0,77,0.00,,---,0.00,VWS V14.01,2013-02-09 16:27:00,
2013-02-09 07:29:00,3.5,-2.1,29.41,North,5,9.0,15.0,77,0.00,,---,0.00,VWS V14.01,2013-02-09 16:29:00,
2013-02-09 07:30:00,3.2,-2.4,29.41,North,5,9.0,15.0,77,0.00,,---,0.00,VWS V14.01,2013-02-09 16:30:00,
2013-02-09 07:31:00,3.5,-2.1,29.41,NW,323,9.0,15.0,77,0.00,,---,0.00,VWS V14.01,2013-02-09 16:31:00,
2013-02-09 07:32:00,3.4,-2.5,29.41,North,5,8.0,15.0,76,0.00,,---,0.00,VWS V14.01,2013-02-09 16:32:00,
2013-02-09 07:34:00,3.2,-2.6,29.41,NNW,336,7.0,15.0,76,0.00,,---,0.00,VWS V14.01,2013-02-09 16:34:00,
2013-02-09 07:35:00,3.4,-2.5,29.41,North,5,8.0,15.0,76,0.00,,---,0.00,VWS V14.01,2013-02-09 16:35:00,
2013-02-09 07:36:00,3.1,-2.7,29.41,North,5,9.0,15.0,76,0.00,,---,0.00,VWS V14.01,2013-02-09 16:36:00,
2013-02-09 07:37:00,2.9,-2.9,29.41,NNW,338,7.0,7.0,76,0.00,,---,0.00,VWS V14.01,2013-02-09 16:37:00,
2013-02-09 07:40:00,2.9,-2.9,29.40,NNW,335,9.0,10.0,76,0.00,,---,0.00,VWS V14.01,2013-02-09 16:40:00,
2013-02-09 07:41:00,3.0,-2.6,29.40,NNE,14,3.0,10.0,77,0.00,,---,0.00,VWS V14.01,2013-02-09 16:41:00,
2013-02-09 07:42:00,3.0,-2.6,29.40,NNE,12,6.0,7.0,77,0.00,,---,0.00,VWS V14.01,2013-02-09 16:42:00,
2013-02-09 07:45:00,3.5,-1.8,29.40,NNW,344,11.0,11.0,78,0.00,,---,0.00,VWS V14.01,2013-02-09 16:45:00,
2013-02-09 07:47:00,3.6,-2.0,29.40,NNW,348,11.0,13.0,77,0.00,,---,0.00,VWS V14.01,2013-02-09 16:47:00,
2013-02-09 07:50:00,3.3,-2.5,29.40,NNW,342,10.0,12.0,76,0.00,,---,0.00,VWS V14.01,2013-02-09 16:50:00,
2013-02-09 07:52:00,3.2,-2.9,29.40,NW,326,5.0,12.0,75,0.00,,---,0.00,VWS V14.01,2013-02-09 16:52:00,
2013-02-09 07:53:00,3.1,-3.0,29.40,NNW,345,9.0,9.0,75,0.00,,---,0.00,VWS V14.01,2013-02-09 16:53:00,
2013-02-09 07:55:00,3.0,-2.8,29.39,NNW,346,7.0,13.0,76,0.00,,---,0.00,VWS V14.01,2013-02-09 16:55:00,
2013-02-09 07:57:00,2.9,-2.9,29.39,NNW,346,7.0,13.0,76,0.00,,---,0.00,VWS V14.01,2013-02-09 16:57:00,
2013-02-09 07:58:00,2.9,-2.9,29.39,NNE,33,8.0,13.0,76,0.00,,---,0.00,VWS V14.01,2013-02-09 16:58:00,
2013-02-09 08:00:00,3.0,-2.8,29.38,North,360,8.0,13.0,76,0.00,,---,0.00,VWS V14.01,2013-02-09 17:00:00,
2013-02-09 08:02:00,3.2,-2.4,29.38,North,355,7.0,8.0,77,0.00,,---,0.00,VWS V14.01,2013-02-09 17:02:00,
2013-02-09 08:03:00,3.3,-2.3,29.38,North,350,11.0,12.0,77,0.00,,---,0.00,VWS V14.01,2013-02-09 17:03:00,
2013-02-09 08:05:00,3.4,-2.2,29.38,NNE,12,8.0,14.0,77,0.00,,---,0.00,VWS V14.01,2013-02-09 17:05:00,
2013-02-09 08:07:00,3.4,-2.5,29.38,NNW,340,4.0,5.0,76,0.00,,---,0.00,VWS V14.01,2013-02-09 17:07:00,
2013-02-09 08:08:00,3.4,-2.2,29.38,NNW,340,8.0,11.0,77,0.00,,---,0.00,VWS V14.01,2013-02-09 17:08:00,
2013-02-09 08:10:00,3.2,-2.6,29.38,NNW,343,8.0,17.0,76,0.00,,---,0.00,VWS V14.01,2013-02-09 17:10:00,
2013-02-09 08:12:00,3.0,-2.8,29.38,North,360,5.0,12.0,76,0.00,,---,0.00,VWS V14.01,2013-02-09 17:12:00,
2013-02-09 08:13:00,3.0,-2.8,29.38,North,5,11.0,12.0,76,0.00,,---,0.00,VWS V14.01,2013-02-09 17:13:00,
2013-02-09 08:15:00,3.1,-2.7,29.38,North,5,8.0,17.0,76,0.00,,---,0.00,VWS V14.01,2013-02-09 17:15:00,
2013-02-09 08:16:00,2.8,-3.0,29.38,North,5,7.0,13.0,76,0.00,,---,0.00,VWS V14.01,2013-02-09 17:16:00,
2013-02-09 08:17:00,3.0,-2.6,29.38,NE,38,9.0,11.0,77,0.00,,---,0.00,VWS V14.01,2013-02-09 17:17:00,
2013-02-09 08:18:00,3.0,-2.6,29.38,North,360,8.0,11.0,77,0.00,,---,0.00,VWS V14.01,2013-02-09 17:18:00,
2013-02-09 08:19:00,3.2,-2.4,29.38,North,355,9.0,13.0,77,0.00,,---,0.00,VWS V14.01,2013-02-09 17:19:00,
2013-02-09 08:20:00,2.9,-2.7,29.38,North,9,5.0,13.0,77,0.00,,---,0.00,VWS V14.01,2013-02-09 17:20:00,
2013-02-09 08:21:00,3.2,-2.4,29.38,NNW,336,5.0,13.0,77,0.00,,---,0.00,VWS V14.01,2013-02-09 17:21:00,
2013-02-09 08:23:00,3.3,-2.3,29.38,North,355,3.0,6.0,77,0.00,,---,0.00,VWS V14.01,2013-02-09 17:23:00,
2013-02-09 08:24:00,3.5,-2.1,29.37,NNW,337,3.0,7.0,77,0.00,,---,0.00,VWS V14.01,2013-02-09 17:24:00,
2013-02-09 08:25:00,3.3,-2.3,29.38,North,360,6.0,13.0,77,0.00,,---,0.00,VWS V14.01,2013-02-09 17:25:00,
2013-02-09 08:26:00,3.6,-2.0,29.37,North,360,4.0,12.0,77,0.00,,---,0.00,VWS V14.01,2013-02-09 17:26:00,
2013-02-09 08:28:00,3.7,-1.9,29.37,NNW,346,8.0,10.0,77,0.00,,---,0.00,VWS V14.01,2013-02-09 17:28:00,
2013-02-09 08:29:00,3.9,-1.7,29.37,North,355,9.0,13.0,77,0.00,,---,0.00,VWS V14.01,2013-02-09 17:29:00,
2013-02-09 08:30:00,3.7,-1.9,29.37,North,355,3.0,12.0,77,0.00,,---,0.00,VWS V14.01,2013-02-09 17:30:00,
2013-02-09 08:31:00,4.0,-1.6,29.37,NNW,348,9.0,13.0,77,0.00,,---,0.00,VWS V14.01,2013-02-09 17:31:00,
2013-02-09 08:33:00,4.2,-1.4,29.37,NNE,32,7.0,7.0,77,0.00,,---,0.00,VWS V14.01,2013-02-09 17:33:00,
2013-02-09 08:35:00,4.1,-1.8,29.37,NW,320,6.0,13.0,76,0.00,,---,0.00,VWS V14.01,2013-02-09 17:35:00,
2013-02-09 08:36:00,4.2,-1.7,29.37,North,5,5.0,13.0,76,0.00,,---,0.00,VWS V14.01,2013-02-09 17:36:00,
2013-02-09 08:39:00,4.5,-0.8,29.37,NNW,333,5.0,6.0,78,0.00,,---,0.00,VWS V14.01,2013-02-09 17:39:00,
2013-02-09 08:40:00,4.7,-0.6,29.37,NNW,343,9.0,9.0,78,0.00,,---,0.00,VWS V14.01,2013-02-09 17:40:00,
2013-02-09 08:41:00,4.9,-0.4,29.37,North,5,10.0,12.0,78,0.00,,---,0.00,VWS V14.01,2013-02-09 17:41:00,
2013-02-09 08:44:00,5.0,-0.6,29.37,NW,312,5.0,12.0,77,0.00,,---,0.00,VWS V14.01,2013-02-09 17:44:00,
2013-02-09 08:45:00,4.8,-1.1,29.36,NW,325,6.0,12.0,76,0.00,,---,0.00,VWS V14.01,2013-02-09 17:45:00,
2013-02-09 08:46:00,4.7,-1.2,29.36,NW,309,9.0,12.0,76,0.00,,---,0.00,VWS V14.01,2013-02-09 17:46:00,
2013-02-09 08:49:00,4.5,-1.4,29.36,NW,304,7.0,9.0,76,0.00,,---,0.00,VWS V14.01,2013-02-09 17:49:00,
2013-02-09 08:50:00,4.5,-1.4,29.36,NW,311,9.0,9.0,76,0.00,,---,0.00,VWS V14.01,2013-02-09 17:50:00,
2013-02-09 08:51:00,4.6,-1.3,29.36,North,355,4.0,12.0,76,0.00,,---,0.00,VWS V14.01,2013-02-09 17:51:00,
2013-02-09 08:54:00,4.7,-0.9,29.36,North,360,3.0,9.0,77,0.00,,---,0.00,VWS V14.01,2013-02-09 17:54:00,
2013-02-09 08:55:00,4.6,-1.3,29.36,North,351,1.0,12.0,76,0.00,,---,0.00,VWS V14.01,2013-02-09 17:55:00,
2013-02-09 08:56:00,4.6,-1.3,29.36,NW,324,6.0,14.0,76,0.00,,---,0.00,VWS V14.01,2013-02-09 17:56:00,
2013-02-09 08:59:00,4.5,-1.4,29.36,NW,319,5.0,8.0,76,0.00,,---,0.00,VWS V14.01,2013-02-09 17:59:00,
2013-02-09 09:00:00,4.5,-1.4,29.36,NNW,333,6.0,9.0,76,0.00,,---,0.00,VWS V14.01,2013-02-09 18:00:00,
2013-02-09 09:01:00,4.5,-1.4,29.36,NNW,330,7.0,9.0,76,0.00,,---,0.00,VWS V14.01,2013-02-09 18:01:00,
2013-02-09 09:02:00,4.5,-1.4,29.36,North,9,6.0,6.0,76,0.00,,---,0.00,VWS V14.01,2013-02-09 18:02:00,
2013-02-09 09:04:00,4.5,-1.4,29.36,NW,325,3.0,12.0,76,0.00,,---,0.00,VWS V14.01,2013-02-09 18:04:00,
2013-02-09 09:05:00,4.6,-1.3,29.36,North,5,4.0,12.0,76,0.00,,---,0.00,VWS V14.01,2013-02-09 18:05:00,
2013-02-09 09:06:00,4.8,-0.5,29.36,North,355,6.0,12.0,78,0.00,,---,0.00,VWS V14.01,2013-02-09 18:06:00,
2013-02-09 09:07:00,5.2,0.1,29.36,North,355,6.0,6.0,79,0.00,,---,0.00,VWS V14.01,2013-02-09 18:07:00,
2013-02-09 09:09:00,5.6,0.2,29.35,NNE,17,3.0,11.0,78,0.00,,---,0.00,VWS V14.01,2013-02-09 18:09:00,
2013-02-09 09:10:00,5.6,0.0,29.35,North,355,4.0,11.0,77,0.00,,---,0.00,VWS V14.01,2013-02-09 18:10:00,
2013-02-09 09:11:00,5.6,0.0,29.35,North,351,5.0,11.0,77,0.00,,---,0.00,VWS V14.01,2013-02-09 18:11:00,
2013-02-09 09:12:00,5.6,0.0,29.35,NNW,345,5.0,5.0,77,0.00,,---,0.00,VWS V14.01,2013-02-09 18:12:00,
2013-02-09 09:15:00,5.8,0.4,29.35,NNE,24,6.0,10.0,78,0.00,,---,0.00,VWS V14.01,2013-02-09 18:15:00,
2013-02-09 09:16:00,6.0,0.6,29.34,North,5,11.0,11.0,78,0.00,,---,0.00,VWS V14.01,2013-02-09 18:16:00,
2013-02-09 09:17:00,6.2,0.6,29.34,North,355,6.0,10.0,77,0.00,,---,0.00,VWS V14.01,2013-02-09 18:17:00,
2013-02-09 09:20:00,6.2,0.6,29.34,North,360,9.0,14.0,77,0.00,,---,0.00,VWS V14.01,2013-02-09 18:20:00,
2013-02-09 09:22:00,6.0,0.1,29.34,NNW,344,8.0,15.0,76,0.00,,---,0.00,VWS V14.01,2013-02-09 18:22:00,
2013-02-09 09:25:00,5.9,0.3,29.33,NNW,336,9.0,16.0,77,0.00,,---,0.00,VWS V14.01,2013-02-09 18:25:00,
2013-02-09 09:26:00,5.9,0.3,29.33,NNE,12,10.0,16.0,77,0.00,,---,0.00,VWS V14.01,2013-02-09 18:26:00,
2013-02-09 09:27:00,6.0,0.3,29.33,NNW,335,10.0,16.0,77,0.00,,---,0.00,VWS V14.01,2013-02-09 18:27:00,
2013-02-09 09:28:00,5.9,0.0,29.33,NNW,331,12.0,14.0,76,0.00,,---,0.00,VWS V14.01,2013-02-09 18:28:00,
2013-02-09 09:30:00,5.5,-0.4,29.33,North,355,9.0,14.0,76,0.00,,---,0.00,VWS V14.01,2013-02-09 18:30:00,
2013-02-09 09:32:00,5.3,-0.9,29.33,NNW,338,9.0,14.0,75,0.00,,---,0.00,VWS V14.01,2013-02-09 18:32:00,
2013-02-09 09:33:00,5.1,-1.1,29.33,NW,326,8.0,10.0,75,0.00,,---,0.00,VWS V14.01,2013-02-09 18:33:00,
2013-02-09 09:35:00,5.2,-0.4,29.32,North,10,9.0,16.0,77,0.00,,---,0.00,VWS V14.01,2013-02-09 18:35:00,
2013-02-09 09:37:00,5.3,-0.3,29.32,North,5,10.0,16.0,77,0.00,,---,0.00,VWS V14.01,2013-02-09 18:37:00,
2013-02-09 09:38:00,5.4,-0.2,29.32,North,355,10.0,14.0,77,0.00,,---,0.00,VWS V14.01,2013-02-09 18:38:00,
2013-02-09 09:40:00,5.3,-0.3,29.32,North,5,10.0,16.0,77,0.00,,---,0.00,VWS V14.01,2013-02-09 18:40:00,
2013-02-09 09:41:00,5.3,-0.3,29.32,NNW,328,10.0,14.0,77,0.00,,---,0.00,VWS V14.01,2013-02-09 18:41:00,
2013-02-09 09:42:00,5.3,-0.3,29.32,North,355,8.0,15.0,77,0.00,,---,0.00,VWS V14.01,2013-02-09 18:42:00,
2013-02-09 09:43:00,5.3,-0.3,29.32,NNW,348,10.0,12.0,77,0.00,,---,0.00,VWS V14.01,2013-02-09 18:43:00,
2013-02-09 09:45:00,5.3,-0.3,29.32,North,355,8.0,15.0,77,0.00,,---,0.00,VWS V14.01,2013-02-09 18:45:00,
2013-02-09 09:46:00,5.1,-0.8,29.32,NNW,329,6.0,16.0,76,0.00,,---,0.00,VWS V14.01,2013-02-09 18:46:00,
2013-02-09 09:47:00,5.1,-0.5,29.32,North,360,12.0,12.0,77,0.00,,---,0.00,VWS V14.01,2013-02-09 18:47:00,
2013-02-09 09:48:00,5.1,-0.5,29.32,North,350,7.0,12.0,77,0.00,,---,0.00,VWS V14.01,2013-02-09 18:48:00,
2013-02-09 09:50:00,5.1,-0.5,29.32,North,355,8.0,16.0,77,0.00,,---,0.00,VWS V14.01,2013-02-09 18:50:00,
2013-02-09 09:52:00,5.3,0.2,29.32,NNE,19,8.0,8.0,79,0.00,,---,0.00,VWS V14.01,2013-02-09 18:52:00,
2013-02-09 09:53:00,5.5,0.7,29.32,WNW,303,8.0,12.0,80,0.00,,---,0.00,VWS V14.01,2013-02-09 18:53:00,
2013-02-09 09:55:00,5.3,0.2,29.32,NNW,346,7.0,14.0,79,0.00,,---,0.00,VWS V14.01,2013-02-09 18:55:00,
2013-02-09 09:57:00,5.7,0.6,29.31,NW,325,6.0,6.0,79,0.00,,---,0.00,VWS V14.01,2013-02-09 18:57:00,
2013-02-09 09:58:00,5.7,0.6,29.31,NNW,333,6.0,6.0,79,0.00,,---,0.00,VWS V14.01,2013-02-09 18:58:00,
2013-02-09 10:00:00,5.7,0.6,29.31,NW,315,4.0,12.0,79,0.00,,---,0.00,VWS V14.01,2013-02-09 19:00:00,
2013-02-09 10:02:00,6.0,1.2,29.30,WNW,302,6.0,8.0,80,0.00,,---,0.00,VWS V14.01,2013-02-09 19:02:00,
2013-02-09 10:03:00,6.1,1.3,29.30,NW,319,9.0,13.0,80,0.00,,---,0.00,VWS V14.01,2013-02-09 19:03:00,
2013-02-09 10:05:00,6.0,1.2,29.30,NW,320,8.0,13.0,80,0.00,,---,0.00,VWS V14.01,2013-02-09 19:05:00,
2013-02-09 10:07:00,6.3,1.5,29.30,NW,323,10.0,10.0,80,0.00,,---,0.00,VWS V14.01,2013-02-09 19:07:00,
2013-02-09 10:08:00,6.5,1.9,29.30,WNW,292,10.0,14.0,81,0.00,,---,0.00,VWS V14.01,2013-02-09 19:08:00,
2013-02-09 10:10:00,6.3,1.5,29.30,NW,309,8.0,14.0,80,0.00,,---,0.00,VWS V14.01,2013-02-09 19:10:00,
2013-02-09 10:12:00,7.1,2.2,29.29,NW,309,7.0,12.0,80,0.00,,---,0.00,VWS V14.01,2013-02-09 19:12:00,
2013-02-09 10:13:00,7.1,2.2,29.29,NW,306,10.0,12.0,80,0.00,,---,0.00,VWS V14.01,2013-02-09 19:13:00,
2013-02-09 10:15:00,7.0,2.2,29.29,WNW,302,9.0,14.0,80,0.00,,---,0.00,VWS V14.01,2013-02-09 19:15:00,
2013-02-09 10:17:00,6.7,1.3,29.29,WNW,285,1.0,3.0,78,0.00,,---,0.00,VWS V14.01,2013-02-09 19:17:00,
2013-02-09 10:18:00,6.7,1.3,29.29,WNW,292,2.0,5.0,78,0.00,,---,0.00,VWS V14.01,2013-02-09 19:18:00,
2013-02-09 10:19:00,6.6,1.5,29.29,NW,323,4.0,6.0,79,0.00,,---,0.00,VWS V14.01,2013-02-09 19:19:00,
2013-02-09 10:20:00,6.7,1.3,29.29,West,272,2.0,12.0,78,0.00,,---,0.00,VWS V14.01,2013-02-09 19:20:00,
2013-02-09 10:22:00,6.8,1.7,29.29,West,275,5.0,10.0,79,0.00,,---,0.00,VWS V14.01,2013-02-09 19:22:00,
2013-02-09 10:23:00,6.8,2.0,29.29,WNW,293,3.0,10.0,80,0.00,,---,0.00,VWS V14.01,2013-02-09 19:23:00,
2013-02-09 10:24:00,6.9,1.8,29.29,WNW,285,9.0,10.0,79,0.00,,---,0.00,VWS V14.01,2013-02-09 19:24:00,
2013-02-09 10:25:00,6.8,1.7,29.29,NNW,329,7.0,11.0,79,0.00,,---,0.00,VWS V14.01,2013-02-09 19:25:00,
2013-02-09 10:28:00,7.8,3.5,29.29,WNW,294,7.0,13.0,82,0.00,,---,0.00,VWS V14.01,2013-02-09 19:28:00,
2013-02-09 10:29:00,8.0,3.4,29.28,NW,323,12.0,13.0,81,0.00,,---,0.00,VWS V14.01,2013-02-09 19:29:00,
2013-02-09 10:30:00,7.4,3.1,29.28,NW,312,5.0,10.0,82,0.00,,---,0.00,VWS V14.01,2013-02-09 19:30:00,
2013-02-09 10:33:00,7.5,2.1,29.28,NNW,327,8.0,12.0,78,0.00,,---,0.00,VWS V14.01,2013-02-09 19:33:00,
2013-02-09 10:34:00,7.4,2.0,29.28,NNW,334,3.0,12.0,78,0.00,,---,0.00,VWS V14.01,2013-02-09 19:34:00,
2013-02-09 10:35:00,7.6,2.2,29.28,NW,317,9.0,14.0,78,0.00,,---,0.00,VWS V14.01,2013-02-09 19:35:00,
2013-02-09 10:38:00,7.6,2.7,29.28,NNW,331,6.0,8.0,80,0.00,,---,0.00,VWS V14.01,2013-02-09 19:38:00,
2013-02-09 10:39:00,7.8,2.9,29.28,NNW,340,5.0,8.0,80,0.00,,---,0.00,VWS V14.01,2013-02-09 19:39:00,
2013-02-09 10:40:00,7.4,2.3,29.28,North,360,6.0,12.0,79,0.00,,---,0.00,VWS V14.01,2013-02-09 19:40:00,
2013-02-09 10:43:00,9.2,5.1,29.27,North,350,9.0,10.0,83,0.00,,---,0.00,VWS V14.01,2013-02-09 19:43:00,
2013-02-09 10:44:00,9.5,5.4,29.27,NW,321,7.0,10.0,83,0.00,,---,0.00,VWS V14.01,2013-02-09 19:44:00,
2013-02-09 10:45:00,8.6,4.2,29.27,NW,320,5.0,9.0,82,0.00,,---,0.00,VWS V14.01,2013-02-09 19:45:00,
2013-02-09 10:48:00,9.5,4.3,29.27,NE,44,4.0,9.0,79,0.00,,---,0.00,VWS V14.01,2013-02-09 19:48:00,
2013-02-09 10:49:00,9.5,4.3,29.27,NNE,20,5.0,9.0,79,0.00,,---,0.00,VWS V14.01,2013-02-09 19:49:00,
2013-02-09 10:50:00,9.6,4.7,29.28,NNE,16,7.0,10.0,80,0.00,,---,0.00,VWS V14.01,2013-02-09 19:50:00,
2013-02-09 10:53:00,9.0,3.3,29.27,NW,310,7.0,12.0,77,0.00,,---,0.00,VWS V14.01,2013-02-09 19:53:00,
2013-02-09 10:54:00,8.9,3.5,29.27,NNW,329,6.0,12.0,78,0.00,,---,0.00,VWS V14.01,2013-02-09 19:54:00,
2013-02-09 10:55:00,9.3,3.8,29.27,NW,305,10.0,12.0,78,0.00,,---,0.00,VWS V14.01,2013-02-09 19:55:00,
2013-02-09 10:59:00,9.2,4.3,29.27,NW,317,5.0,7.0,80,0.00,,---,0.00,VWS V14.01,2013-02-09 19:59:00,
2013-02-09 11:00:00,8.9,3.7,29.27,North,355,5.0,12.0,79,0.00,,---,0.00,VWS V14.01,2013-02-09 20:00:00,
2013-02-09 11:04:00,9.8,5.2,29.26,NNW,346,3.0,8.0,81,0.00,,---,0.00,VWS V14.01,2013-02-09 20:04:00,
2013-02-09 11:05:00,9.9,5.0,29.26,NNW,348,3.0,8.0,80,0.00,,---,0.00,VWS V14.01,2013-02-09 20:05:00,
2013-02-09 11:09:00,10.3,4.8,29.26,NNW,346,7.0,9.0,78,0.00,,---,0.00,VWS V14.01,2013-02-09 20:09:00,
2013-02-09 11:10:00,10.3,4.8,29.26,North,360,3.0,9.0,78,0.00,,---,0.00,VWS V14.01,2013-02-09 20:10:00,
2013-02-09 11:14:00,10.7,5.5,29.26,NNW,336,2.0,8.0,79,0.00,,---,0.00,VWS V14.01,2013-02-09 20:14:00,
2013-02-09 11:15:00,10.8,5.6,29.26,NW,320,7.0,8.0,79,0.00,,---,0.00,VWS V14.01,2013-02-09 20:15:00,
2013-02-09 11:19:00,11.2,6.0,29.26,North,355,9.0,10.0,79,0.00,,---,0.00,VWS V14.01,2013-02-09 20:19:00,
2013-02-09 11:20:00,11.2,5.7,29.26,NNW,346,4.0,10.0,78,0.00,,---,0.00,VWS V14.01,2013-02-09 20:20:00,
2013-02-09 11:24:00,10.6,4.5,29.26,NNW,327,1.0,7.0,76,0.00,,---,0.00,VWS V14.01,2013-02-09 20:24:00,
2013-02-09 11:25:00,10.5,4.4,29.25,NW,317,5.0,7.0,76,0.00,,---,0.00,VWS V14.01,2013-02-09 20:25:00,
2013-02-09 11:29:00,9.9,4.2,29.25,WNW,298,7.0,9.0,77,0.00,,---,0.00,VWS V14.01,2013-02-09 20:29:00,
2013-02-09 11:30:00,9.8,4.3,29.25,WNW,293,4.0,9.0,78,0.00,,---,0.00,VWS V14.01,2013-02-09 20:30:00,
2013-02-09 11:31:00,9.8,4.3,29.25,NW,323,6.0,10.0,78,0.00,,---,0.00,VWS V14.01,2013-02-09 20:31:00,
2013-02-09 11:34:00,10.0,4.8,29.25,North,350,10.0,12.0,79,0.00,,---,0.00,VWS V14.01,2013-02-09 20:34:00,
2013-02-09 11:35:00,10.1,4.9,29.25,NNW,327,7.0,12.0,79,0.00,,---,0.00,VWS V14.01,2013-02-09 20:35:00,
2013-02-09 11:36:00,10.3,5.1,29.25,NNW,336,10.0,12.0,79,0.00,,---,0.00,VWS V14.01,2013-02-09 20:36:00,
2013-02-09 11:39:00,10.5,5.3,29.25,North,355,3.0,13.0,79,0.00,,---,0.00,VWS V14.01,2013-02-09 20:39:00,
2013-02-09 11:40:00,10.4,4.9,29.25,NNW,333,9.0,13.0,78,0.00,,---,0.00,VWS V14.01,2013-02-09 20:40:00,
2013-02-09 11:41:00,10.4,4.9,29.25,NW,315,10.0,13.0,78,0.00,,---,0.00,VWS V14.01,2013-02-09 20:41:00,
2013-02-09 11:42:00,10.4,5.2,29.24,WNW,298,5.0,7.0,79,0.00,,---,0.00,VWS V14.01,2013-02-09 20:42:00,
2013-02-09 11:44:00,10.5,5.6,29.24,NNW,333,5.0,10.0,80,0.00,,---,0.00,VWS V14.01,2013-02-09 20:44:00,
2013-02-09 11:45:00,10.6,5.7,29.24,NNW,344,10.0,14.0,80,0.00,,---,0.00,VWS V14.01,2013-02-09 20:45:00,
2013-02-09 11:46:00,10.7,5.8,29.24,NNW,328,12.0,14.0,80,0.00,,---,0.00,VWS V14.01,2013-02-09 20:46:00,
2013-02-09 11:47:00,10.9,6.2,29.24,NW,305,12.0,14.0,81,0.00,,---,0.00,VWS V14.01,2013-02-09 20:47:00,
2013-02-09 11:50:00,11.3,6.3,29.24,North,355,10.0,16.0,80,0.00,,---,0.00,VWS V14.01,2013-02-09 20:50:00,
2013-02-09 11:51:00,11.3,6.3,29.24,NW,326,6.0,16.0,80,0.00,,---,0.00,VWS V14.01,2013-02-09 20:51:00,
2013-02-09 11:52:00,11.3,6.3,29.24,NNW,332,12.0,12.0,80,0.00,,---,0.00,VWS V14.01,2013-02-09 20:52:00,
2013-02-09 11:55:00,11.4,6.2,29.24,NNW,330,9.0,12.0,79,0.00,,---,0.00,VWS V14.01,2013-02-09 20:55:00,
2013-02-09 11:56:00,11.3,6.1,29.24,NW,318,9.0,12.0,79,0.00,,---,0.00,VWS V14.01,2013-02-09 20:56:00,
2013-02-09 11:57:00,11.1,5.6,29.24,NW,325,4.0,11.0,78,0.00,,---,0.00,VWS V14.01,2013-02-09 20:57:00,
2013-02-09 12:00:00,10.9,5.7,29.24,NW,309,4.0,11.0,79,0.00,,---,0.00,VWS V14.01,2013-02-09 21:00:00,
2013-02-09 12:01:00,10.9,5.7,29.24,North,5,11.0,11.0,79,0.00,,---,0.00,VWS V14.01,2013-02-09 21:01:00,
2013-02-09 12:03:00,11.0,5.8,29.23,NW,308,4.0,8.0,79,0.00,,---,0.00,VWS V14.01,2013-02-09 21:03:00,
2013-02-09 12:05:00,10.8,5.6,29.23,WNW,283,4.0,9.0,79,0.00,,---,0.00,VWS V14.01,2013-02-09 21:05:00,
2013-02-09 12:06:00,10.8,5.6,29.23,NW,326,2.0,9.0,79,0.00,,---,0.00,VWS V14.01,2013-02-09 21:06:00,
2013-02-09 12:09:00,10.8,5.9,29.23,North,11,5.0,9.0,80,0.00,,---,0.00,VWS V14.01,2013-02-09 21:09:00,
2013-02-09 12:10:00,11.0,6.1,29.23,North,355,1.0,11.0,80,0.00,,---,0.00,VWS V14.01,2013-02-09 21:10:00,
2013-02-09 12:11:00,10.9,5.9,29.23,NNW,334,12.0,12.0,80,0.00,,---,0.00,VWS V14.01,2013-02-09 21:11:00,
2013-02-09 12:14:00,10.8,5.9,29.22,NW,325,8.0,12.0,80,0.00,,---,0.00,VWS V14.01,2013-02-09 21:14:00,
2013-02-09 12:15:00,11.1,6.7,29.22,NNW,346,5.0,12.0,82,0.00,,---,0.00,VWS V14.01,2013-02-09 21:15:00,
2013-02-09 12:16:00,11.2,6.8,29.22,NW,306,10.0,12.0,82,0.00,,---,0.00,VWS V14.01,2013-02-09 21:16:00,
2013-02-09 12:17:00,11.3,6.9,29.22,NNW,340,12.0,12.0,82,0.00,,---,0.00,VWS V14.01,2013-02-09 21:17:00,
2013-02-09 12:19:00,11.3,6.9,29.22,NW,326,8.0,15.0,82,0.00,,---,0.00,VWS V14.01,2013-02-09 21:19:00,
2013-02-09 12:20:00,11.3,6.9,29.22,NNW,340,12.0,12.0,82,0.00,,---,0.00,VWS V14.01,2013-02-09 21:20:00,
2013-02-09 12:21:00,10.9,5.9,29.22,NW,321,6.0,15.0,80,0.00,,---,0.00,VWS V14.01,2013-02-09 21:21:00,
2013-02-09 12:22:00,10.7,5.8,29.22,NW,321,11.0,11.0,80,0.00,,---,0.00,VWS V14.01,2013-02-09 21:22:00,
2013-02-09 12:24:00,10.8,6.4,29.22,NNW,338,7.0,11.0,82,0.00,,---,0.00,VWS V14.01,2013-02-09 21:24:00,
2013-02-09 12:25:00,10.8,5.9,29.22,NNW,347,5.0,15.0,80,0.00,,---,0.00,VWS V14.01,2013-02-09 21:25:00,
2013-02-09 12:26:00,11.0,6.9,29.22,North,350,4.0,11.0,83,0.00,,---,0.00,VWS V14.01,2013-02-09 21:26:00,
2013-02-09 12:27:00,11.1,7.0,29.22,NNW,337,8.0,11.0,83,0.00,,---,0.00,VWS V14.01,2013-02-09 21:27:00,
2013-02-09 12:29:00,11.5,7.3,29.21,NNW,336,8.0,14.0,83,0.00,,---,0.00,VWS V14.01,2013-02-09 21:29:00,
2013-02-09 12:30:00,11.1,7.0,29.22,NNW,337,8.0,11.0,83,0.00,,---,0.00,VWS V14.01,2013-02-09 21:30:00,
2013-02-09 12:31:00,11.7,7.8,29.21,NNW,331,8.0,14.0,84,0.00,,---,0.00,VWS V14.01,2013-02-09 21:31:00,
2013-02-09 12:32:00,12.0,8.1,29.21,North,355,10.0,14.0,84,0.00,,---,0.00,VWS V14.01,2013-02-09 21:32:00,
2013-02-09 12:34:00,12.7,8.8,29.21,NW,326,11.0,13.0,84,0.00,,---,0.00,VWS V14.01,2013-02-09 21:34:00,
2013-02-09 12:35:00,12.0,8.1,29.21,North,355,10.0,14.0,84,0.00,,---,0.00,VWS V14.01,2013-02-09 21:35:00,
2013-02-09 12:36:00,12.6,7.9,29.20,NW,325,12.0,17.0,81,0.00,,---,0.00,VWS V14.01,2013-02-09 21:36:00,
2013-02-09 12:37:00,12.6,8.2,29.20,NNW,329,10.0,11.0,82,0.00,,---,0.00,VWS V14.01,2013-02-09 21:37:00,
2013-02-09 12:39:00,12.7,8.3,29.20,NNW,332,13.0,14.0,82,0.00,,---,0.00,VWS V14.01,2013-02-09 21:39:00,
2013-02-09 12:40:00,12.6,8.2,29.20,NNW,333,9.0,17.0,82,0.00,,---,0.00,VWS V14.01,2013-02-09 21:40:00,
2013-02-09 12:41:00,12.6,7.9,29.20,NW,320,8.0,14.0,81,0.00,,---,0.00,VWS V14.01,2013-02-09 21:41:00,
2013-02-09 12:42:00,12.4,7.7,29.20,WNW,299,10.0,13.0,81,0.00,,---,0.00,VWS V14.01,2013-02-09 21:42:00,
2013-02-09 12:43:00,12.5,8.1,29.20,NW,323,8.0,15.0,82,0.00,,---,0.00,VWS V14.01,2013-02-09 21:43:00,
2013-02-09 12:44:00,12.6,8.2,29.19,NNW,334,11.0,15.0,82,0.00,,---,0.00,VWS V14.01,2013-02-09 21:44:00,
2013-02-09 12:45:00,12.4,7.7,29.20,NW,326,9.0,14.0,81,0.00,,---,0.00,VWS V14.01,2013-02-09 21:45:00,
2013-02-09 12:46:00,12.6,8.2,29.19,NW,311,12.0,15.0,82,0.00,,---,0.00,VWS V14.01,2013-02-09 21:46:00,
2013-02-09 12:47:00,12.3,7.3,29.19,NNW,343,6.0,13.0,80,0.00,,---,0.00,VWS V14.01,2013-02-09 21:47:00,
2013-02-09 12:48:00,12.0,7.3,29.19,NNW,327,5.0,13.0,81,0.00,,---,0.00,VWS V14.01,2013-02-09 21:48:00,
2013-02-09 12:49:00,11.9,7.2,29.19,NNW,344,8.0,13.0,81,0.00,,---,0.00,VWS V14.01,2013-02-09 21:49:00,
2013-02-09 12:50:00,12.5,7.5,29.19,NW,313,9.0,15.0,80,0.00,,---,0.00,VWS V14.01,2013-02-09 21:50:00,
2013-02-09 12:51:00,11.9,7.5,29.19,NNW,336,9.0,13.0,82,0.00,,---,0.00,VWS V14.01,2013-02-09 21:51:00,
2013-02-09 12:52:00,11.8,7.4,29.19,NNW,343,9.0,13.0,82,0.00,,---,0.00,VWS V14.01,2013-02-09 21:52:00,
2013-02-09 12:53:00,11.8,7.4,29.19,North,350,7.0,13.0,82,0.00,,---,0.00,VWS V14.01,2013-02-09 21:53:00,
2013-02-09 12:55:00,11.8,7.4,29.19,North,350,7.0,13.0,82,0.00,,---,0.00,VWS V14.01,2013-02-09 21:55:00,
2013-02-09 12:56:00,12.0,7.6,29.19,NW,321,12.0,13.0,82,0.00,,---,0.00,VWS V14.01,2013-02-09 21:56:00,
2013-02-09 12:58:00,12.1,7.7,29.19,North,350,10.0,14.0,82,0.00,,---,0.00,VWS V14.01,2013-02-09 21:58:00,
2013-02-09 12:59:00,12.1,7.7,29.19,WNW,296,6.0,14.0,82,0.00,,---,0.00,VWS V14.01,2013-02-09 21:59:00,
2013-02-09 13:00:00,12.0,7.6,29.19,NW,306,6.0,14.0,82,0.00,,---,0.00,VWS V14.01,2013-02-09 22:00:00,
2013-02-09 13:01:00,12.2,8.0,29.18,West,281,4.0,14.0,83,0.00,,---,0.00,VWS V14.01,2013-02-09 22:01:00,
2013-02-09 13:03:00,12.5,8.3,29.18,WNW,301,10.0,15.0,83,0.00,,---,0.00,VWS V14.01,2013-02-09 22:03:00,
2013-02-09 13:04:00,12.7,8.5,29.18,NW,309,11.0,17.0,83,0.00,,---,0.00,VWS V14.01,2013-02-09 22:04:00,
2013-02-09 13:05:00,12.8,8.6,29.18,NW,318,12.0,17.0,83,0.00,,---,0.00,VWS V14.01,2013-02-09 22:05:00,
2013-02-09 13:06:00,13.1,8.9,29.18,NNW,342,10.0,17.0,83,0.00,,---,0.00,VWS V14.01,2013-02-09 22:06:00,
2013-02-09 13:08:00,13.3,8.8,29.17,NNW,333,10.0,19.0,82,0.00,,---,0.00,VWS V14.01,2013-02-09 22:08:00,
2013-02-09 13:09:00,13.3,8.8,29.17,NNW,329,13.0,19.0,82,0.00,,---,0.00,VWS V14.01,2013-02-09 22:09:00,
2013-02-09 13:10:00,13.2,8.5,29.17,NW,317,16.0,19.0,81,0.00,,---,0.00,VWS V14.01,2013-02-09 22:10:00,
2013-02-09 13:11:00,13.2,8.5,29.17,NW,308,15.0,19.0,81,0.00,,---,0.00,VWS V14.01,2013-02-09 22:11:00,
2013-02-09 13:13:00,13.1,8.6,29.16,WNW,284,5.0,15.0,82,0.00,,---,0.00,VWS V14.01,2013-02-09 22:13:00,
2013-02-09 13:14:00,13.1,8.6,29.16,West,269,9.0,15.0,82,0.00,,---,0.00,VWS V14.01,2013-02-09 22:14:00,
2013-02-09 13:15:00,13.1,8.9,29.16,West,275,8.0,15.0,83,0.00,,---,0.00,VWS V14.01,2013-02-09 22:15:00,
2013-02-09 13:16:00,13.2,9.3,29.16,WSW,250,9.0,15.0,84,0.00,,---,0.00,VWS V14.01,2013-02-09 22:16:00,
2013-02-09 13:18:00,13.6,9.7,29.16,WNW,282,4.0,15.0,84,0.00,,---,0.00,VWS V14.01,2013-02-09 22:18:00,
2013-02-09 13:19:00,13.7,9.8,29.16,West,267,3.0,15.0,84,0.00,,---,0.00,VWS V14.01,2013-02-09 22:19:00,
2013-02-09 13:20:00,14.1,10.7,29.16,WNW,284,9.0,15.0,86,0.00,,---,0.00,VWS V14.01,2013-02-09 22:20:00,
2013-02-09 13:21:00,14.4,10.7,29.16,WSW,242,6.0,15.0,85,0.00,,---,0.00,VWS V14.01,2013-02-09 22:21:00,
2013-02-09 13:24:00,14.9,11.5,29.16,West,267,11.0,16.0,86,0.00,,---,0.00,VWS V14.01,2013-02-09 22:24:00,
2013-02-09 13:25:00,15.2,11.5,29.15,West,264,10.0,16.0,85,0.00,,---,0.00,VWS V14.01,2013-02-09 22:25:00,
2013-02-09 13:26:00,15.3,11.3,29.15,WNW,292,5.0,16.0,84,0.00,,---,0.00,VWS V14.01,2013-02-09 22:26:00,
2013-02-09 13:29:00,15.3,11.1,29.15,SW,227,6.0,14.0,83,0.00,,---,0.00,VWS V14.01,2013-02-09 22:29:00,
2013-02-09 13:30:00,15.3,11.1,29.14,WNW,290,12.0,14.0,83,0.00,,---,0.00,VWS V14.01,2013-02-09 22:30:00,
2013-02-09 13:31:00,15.3,11.1,29.15,West,263,9.0,16.0,83,0.00,,---,0.00,VWS V14.01,2013-02-09 22:31:00,
2013-02-09 13:34:00,15.3,10.8,29.14,WNW,291,6.0,16.0,82,0.00,,---,0.00,VWS V14.01,2013-02-09 22:34:00,
2013-02-09 13:35:00,15.3,11.1,29.14,West,267,7.0,16.0,83,0.00,,---,0.00,VWS V14.01,2013-02-09 22:35:00,
2013-02-09 13:37:00,15.6,11.4,29.15,WSW,240,6.0,10.0,83,0.00,,---,0.00,VWS V14.01,2013-02-09 22:37:00,
2013-02-09 13:39:00,15.9,11.9,29.14,West,266,15.0,18.0,84,0.00,,---,0.00,VWS V14.01,2013-02-09 22:39:00,
2013-02-09 13:40:00,16.1,12.1,29.14,West,277,10.0,18.0,84,0.00,,---,0.00,VWS V14.01,2013-02-09 22:40:00,
2013-02-09 13:42:00,16.2,12.0,29.14,WNW,294,13.0,14.0,83,0.00,,---,0.00,VWS V14.01,2013-02-09 22:42:00,
2013-02-09 13:44:00,16.2,11.4,29.13,WSW,248,8.0,16.0,81,0.00,,---,0.00,VWS V14.01,2013-02-09 22:44:00,
2013-02-09 13:45:00,16.1,11.3,29.13,West,273,5.0,16.0,81,0.00,,---,0.00,VWS V14.01,2013-02-09 22:45:00,
2013-02-09 13:47:00,16.1,11.3,29.13,West,281,4.0,10.0,81,0.00,,---,0.00,VWS V14.01,2013-02-09 22:47:00,
2013-02-09 13:49:00,16.1,11.6,29.13,SW,226,2.0,13.0,82,0.00,,---,0.00,VWS V14.01,2013-02-09 22:49:00,
2013-02-09 13:50:00,16.1,11.6,29.12,West,270,3.0,14.0,82,0.00,,---,0.00,VWS V14.01,2013-02-09 22:50:00,
2013-02-09 13:51:00,16.2,11.7,29.13,WSW,246,6.0,14.0,82,0.00,,---,0.00,VWS V14.01,2013-02-09 22:51:00,
2013-02-09 13:53:00,16.4,12.1,29.12,West,273,9.0,14.0,83,0.00,,---,0.00,VWS V14.01,2013-02-09 22:53:00,
2013-02-09 13:55:00,16.8,12.5,29.12,WSW,254,3.0,14.0,83,0.00,,---,0.00,VWS V14.01,2013-02-09 22:55:00,
2013-02-09 13:56:00,17.0,12.7,29.13,WNW,293,8.0,16.0,83,0.00,,---,0.00,VWS V14.01,2013-02-09 22:56:00,
2013-02-09 13:58:00,17.1,12.6,29.12,NW,308,12.0,12.0,82,0.00,,---,0.00,VWS V14.01,2013-02-09 22:58:00,
2013-02-09 14:00:00,16.9,11.8,29.12,NW,317,8.0,13.0,80,0.00,,---,0.00,VWS V14.01,2013-02-09 23:00:00,
2013-02-09 14:01:00,16.8,11.7,29.12,NW,306,5.0,13.0,80,0.00,,---,0.00,VWS V14.01,2013-02-09 23:01:00,
2013-02-09 14:03:00,16.7,11.6,29.12,West,277,4.0,10.0,80,0.00,,---,0.00,VWS V14.01,2013-02-09 23:03:00,
2013-02-09 14:05:00,16.6,11.5,29.12,WSW,256,7.0,12.0,80,0.00,,---,0.00,VWS V14.01,2013-02-09 23:05:00,
2013-02-09 14:06:00,16.5,11.4,29.12,West,279,4.0,12.0,80,0.00,,---,0.00,VWS V14.01,2013-02-09 23:06:00,
2013-02-09 14:08:00,16.4,11.6,29.12,West,263,7.0,13.0,81,0.00,,---,0.00,VWS V14.01,2013-02-09 23:08:00,
2013-02-09 14:10:00,16.5,11.7,29.12,West,281,8.0,12.0,81,0.00,,---,0.00,VWS V14.01,2013-02-09 23:10:00,
2013-02-09 14:11:00,16.4,11.3,29.12,NW,306,5.0,13.0,80,0.00,,---,0.00,VWS V14.01,2013-02-09 23:11:00,
2013-02-09 14:14:00,16.6,12.4,29.12,North,349,3.0,6.0,83,0.00,,---,0.00,VWS V14.01,2013-02-09 23:14:00,
2013-02-09 14:15:00,16.4,11.6,29.12,NW,315,6.0,13.0,81,0.00,,---,0.00,VWS V14.01,2013-02-09 23:15:00,
2013-02-09 14:16:00,17.0,13.0,29.12,North,349,0.0,6.0,84,0.00,,---,0.00,VWS V14.01,2013-02-09 23:16:00,
2013-02-09 14:19:00,17.3,13.0,29.12,SSE,159,5.0,8.0,83,0.00,,---,0.00,VWS V14.01,2013-02-09 23:19:00,
2013-02-09 14:20:00,17.1,13.1,29.12,North,349,0.0,6.0,84,0.00,,---,0.00,VWS V14.01,2013-02-09 23:20:00,
2013-02-09 14:21:00,17.5,13.2,29.11,SSE,166,4.0,8.0,83,0.00,,---,0.00,VWS V14.01,2013-02-09 23:21:00,
2013-02-09 14:24:00,17.7,13.4,29.11,SSE,166,0.0,4.0,83,0.00,,---,0.00,VWS V14.01,2013-02-09 23:24:00,
2013-02-09 14:25:00,17.5,13.2,29.11,SSE,166,2.0,8.0,83,0.00,,---,0.00,VWS V14.01,2013-02-09 23:25:00,
2013-02-09 14:26:00,17.9,13.4,29.11,SSW,205,1.0,4.0,82,0.00,,---,0.00,VWS V14.01,2013-02-09 23:26:00,
2013-02-09 14:27:00,17.9,13.4,29.11,SSW,205,1.0,2.0,82,0.00,,---,0.00,VWS V14.01,2013-02-09 23:27:00,
2013-02-09 14:29:00,17.7,12.6,29.11,WSW,258,3.0,10.0,80,0.00,,---,0.00,VWS V14.01,2013-02-09 23:29:00,
2013-02-09 14:30:00,17.9,13.4,29.11,SSW,205,1.0,4.0,82,0.00,,---,0.00,VWS V14.01,2013-02-09 23:30:00,
2013-02-09 14:31:00,17.5,12.4,29.11,WSW,250,3.0,10.0,80,0.00,,---,0.00,VWS V14.01,2013-02-09 23:31:00,
2013-02-09 14:32:00,17.5,12.4,29.11,WSW,252,3.0,3.0,80,0.00,,---,0.00,VWS V14.01,2013-02-09 23:32:00,
2013-02-09 14:34:00,17.2,12.1,29.11,WSW,252,3.0,8.0,80,0.00,,---,0.00,VWS V14.01,2013-02-09 23:34:00,
2013-02-09 14:35:00,17.5,12.4,29.11,WSW,252,1.0,10.0,80,0.00,,---,0.00,VWS V14.01,2013-02-09 23:35:00,
2013-02-09 14:37:00,17.2,12.4,29.11,WSW,252,4.0,8.0,81,0.00,,---,0.00,VWS V14.01,2013-02-09 23:37:00,
2013-02-09 14:39:00,17.2,12.4,29.11,WSW,255,0.0,5.0,81,0.00,,---,0.00,VWS V14.01,2013-02-09 23:39:00,
2013-02-09 14:40:00,17.2,12.4,29.11,WSW,252,4.0,8.0,81,0.00,,---,0.00,VWS V14.01,2013-02-09 23:40:00,
2013-02-09 14:42:00,17.3,12.8,29.10,WSW,255,0.0,0.0,82,0.00,,---,0.00,VWS V14.01,2013-02-09 23:42:00,
2013-02-09 14:44:00,17.6,13.6,29.10,SSW,205,3.0,3.0,84,0.00,,---,0.00,VWS V14.01,2013-02-09 23:44:00,
2013-02-09 14:45:00,17.3,12.8,29.10,WSW,255,0.0,5.0,82,0.00,,---,0.00,VWS V14.01,2013-02-09 23:45:00,
2013-02-09 14:47:00,17.9,13.6,29.10,SSE,163,7.0,10.0,83,0.00,,---,0.00,VWS V14.01,2013-02-09 23:47:00,
2013-02-09 14:48:00,17.9,13.6,29.10,SSE,163,6.0,10.0,83,0.00,,---,0.00,VWS V14.01,2013-02-09 23:48:00,
2013-02-09 14:49:00,17.9,13.4,29.10,SSE,164,4.0,10.0,82,0.00,,---,0.00,VWS V14.01,2013-02-09 23:49:00,
2013-02-09 14:50:00,17.9,13.6,29.10,SSE,163,7.0,10.0,83,0.00,,---,0.00,VWS V14.01,2013-02-09 23:50:00,
2013-02-09 14:52:00,17.7,13.1,29.10,South,169,2.0,2.0,82,0.00,,---,0.00,VWS V14.01,2013-02-09 23:52:00,
2013-02-09 14:53:00,17.7,12.9,29.10,South,169,1.0,4.0,81,0.00,,---,0.00,VWS V14.01,2013-02-09 23:53:00,
2013-02-09 14:54:00,17.7,12.9,29.10,South,169,0.0,4.0,81,0.00,,---,0.00,VWS V14.01,2013-02-09 23:54:00,
2013-02-09 14:55:00,17.7,13.1,29.10,South,169,2.0,10.0,82,0.00,,---,0.00,VWS V14.01,2013-02-09 23:55:00,
2013-02-09 14:57:00,17.6,13.1,29.10,South,169,1.0,2.0,82,0.00,,---,0.00,VWS V14.01,2013-02-09 23:57:00,
2013-02-09 14:58:00,17.7,13.1,29.09,South,169,5.0,5.0,82,0.00,,---,0.00,VWS V14.01,2013-02-09 23:58:00,
2013-02-09 14:59:00,17.6,13.1,29.09,South,169,2.0,5.0,82,0.00,,---,0.00,VWS V14.01,2013-02-09 23:59:00,
2013-02-09 15:00:00,17.7,13.1,29.10,South,169,2.0,4.0,82,0.00,,---,0.00,VWS V14.01,2013-02-10 00:00:00,
2013-02-09 15:02:00,17.6,13.1,29.09,South,169,4.0,4.0,82,0.00,,---,0.00,VWS V14.01,2013-02-10 00:02:00,
2013-02-09 15:03:00,17.6,13.3,29.09,South,169,4.0,5.0,83,0.00,,---,0.00,VWS V14.01,2013-02-10 00:03:00,
2013-02-09 15:04:00,17.6,13.1,29.09,SE,134,11.0,11.0,82,0.00,,---,0.00,VWS V14.01,2013-02-10 00:04:00,
2013-02-09 15:05:00,17.6,13.1,29.09,SE,140,5.0,11.0,82,0.00,,---,0.00,VWS V14.01,2013-02-10 00:05:00,
2013-02-09 15:07:00,17.4,12.9,29.09,SE,134,2.0,7.0,82,0.00,,---,0.00,VWS V14.01,2013-02-10 00:07:00,
2013-02-09 15:08:00,17.3,12.8,29.09,SE,134,4.0,7.0,82,0.00,,---,0.00,VWS V14.01,2013-02-10 00:08:00,
2013-02-09 15:09:00,17.2,12.7,29.09,SE,134,5.0,7.0,82,0.00,,---,0.00,VWS V14.01,2013-02-10 00:09:00,
2013-02-09 15:10:00,17.1,12.6,29.09,SE,134,4.0,7.0,82,0.00,,---,0.00,VWS V14.01,2013-02-10 00:10:00,
2013-02-09 15:12:00,16.9,12.4,29.08,SE,134,5.0,7.0,82,0.00,,---,0.00,VWS V14.01,2013-02-10 00:12:00,
2013-02-09 15:13:00,16.9,12.4,29.08,SE,134,2.0,7.0,82,0.00,,---,0.00,VWS V14.01,2013-02-10 00:13:00,
2013-02-09 15:14:00,16.8,12.5,29.08,SE,134,1.0,7.0,83,0.00,,---,0.00,VWS V14.01,2013-02-10 00:14:00,
2013-02-09 15:15:00,16.8,12.5,29.08,SE,134,1.0,7.0,83,0.00,,---,0.00,VWS V14.01,2013-02-10 00:15:00,
2013-02-09 15:18:00,16.9,12.9,29.08,SE,134,2.0,5.0,84,0.00,,---,0.00,VWS V14.01,2013-02-10 00:18:00,
2013-02-09 15:19:00,17.0,13.3,29.08,SE,134,4.0,5.0,85,0.00,,---,0.00,VWS V14.01,2013-02-10 00:19:00,
2013-02-09 15:20:00,17.1,13.4,29.08,SE,134,4.0,5.0,85,0.00,,---,0.00,VWS V14.01,2013-02-10 00:20:00,
2013-02-09 15:23:00,17.3,13.8,29.07,SE,130,5.0,6.0,86,0.00,,---,0.00,VWS V14.01,2013-02-10 00:23:00,
2013-02-09 15:24:00,17.4,13.7,29.07,SE,130,1.0,6.0,85,0.00,,---,0.00,VWS V14.01,2013-02-10 00:24:00,
2013-02-09 15:25:00,17.5,13.8,29.07,SSE,149,0.0,7.0,85,0.00,,---,0.00,VWS V14.01,2013-02-10 00:25:00,
2013-02-09 15:28:00,17.4,13.4,29.07,West,260,4.0,6.0,84,0.00,,---,0.00,VWS V14.01,2013-02-10 00:28:00,
2013-02-09 15:29:00,17.4,13.4,29.07,West,273,4.0,6.0,84,0.00,,---,0.00,VWS V14.01,2013-02-10 00:29:00,
2013-02-09 15:30:00,17.3,12.8,29.07,West,260,6.0,9.0,82,0.00,,---,0.00,VWS V14.01,2013-02-10 00:30:00,
2013-02-09 15:33:00,16.7,11.9,29.06,SSW,213,0.0,2.0,81,0.00,,---,0.00,VWS V14.01,2013-02-10 00:33:00,
2013-02-09 15:34:00,16.7,11.9,29.06,SSW,213,0.0,2.0,81,0.00,,---,0.00,VWS V14.01,2013-02-10 00:34:00,
2013-02-09 15:35:00,16.6,12.1,29.06,SSW,213,1.0,3.0,82,0.00,,---,0.00,VWS V14.01,2013-02-10 00:35:00,
2013-02-09 15:36:00,16.6,12.1,29.06,SSW,211,1.0,3.0,82,0.00,,---,0.00,VWS V14.01,2013-02-10 00:36:00,
2013-02-09 15:38:00,16.6,12.1,29.06,South,182,0.0,4.0,82,0.00,,---,0.00,VWS V14.01,2013-02-10 00:38:00,
2013-02-09 15:39:00,16.6,12.1,29.06,South,182,2.0,4.0,82,0.00,,---,0.00,VWS V14.01,2013-02-10 00:39:00,
2013-02-09 15:40:00,16.6,12.4,29.06,WSW,242,3.0,6.0,83,0.00,,---,0.00,VWS V14.01,2013-02-10 00:40:00,
2013-02-09 15:41:00,16.6,12.1,29.06,WNW,301,6.0,6.0,82,0.00,,---,0.00,VWS V14.01,2013-02-10 00:41:00,
2013-02-09 15:43:00,16.6,12.1,29.06,WSW,251,7.0,10.0,82,0.00,,---,0.00,VWS V14.01,2013-02-10 00:43:00,
2013-02-09 15:44:00,16.3,11.5,29.06,West,263,1.0,10.0,81,0.00,,---,0.00,VWS V14.01,2013-02-10 00:44:00,
2013-02-09 15:45:00,16.2,11.1,29.05,WNW,287,7.0,10.0,80,0.00,,---,0.00,VWS V14.01,2013-02-10 00:45:00,
2013-02-09 15:46:00,16.1,11.0,29.05,WNW,290,3.0,10.0,80,0.00,,---,0.00,VWS V14.01,2013-02-10 00:46:00,
2013-02-09 15:48:00,15.9,11.1,29.05,SW,231,3.0,9.0,81,0.00,,---,0.00,VWS V14.01,2013-02-10 00:48:00,
2013-02-09 15:49:00,15.9,11.1,29.06,West,268,8.0,9.0,81,0.00,,---,0.00,VWS V14.01,2013-02-10 00:49:00,
2013-02-09 15:50:00,15.8,11.0,29.05,SSW,205,2.0,10.0,81,0.00,,---,0.00,VWS V14.01,2013-02-10 00:50:00,
2013-02-09 15:51:00,15.8,10.7,29.05,West,269,6.0,10.0,80,0.00,,---,0.00,VWS V14.01,2013-02-10 00:51:00,
2013-02-09 15:53:00,15.7,10.9,29.05,SSW,213,0.0,5.0,81,0.00,,---,0.00,VWS V14.01,2013-02-10 00:53:00,
2013-02-09 15:55:00,15.7,10.9,29.05,WSW,252,6.0,6.0,81,0.00,,---,0.00,VWS V14.01,2013-02-10 00:55:00,
2013-02-09 15:56:00,15.7,10.9,29.05,WSW,252,1.0,6.0,81,0.00,,---,0.00,VWS V14.01,2013-02-10 00:56:00,
2013-02-09 15:59:00,15.8,11.3,29.04,West,261,1.0,6.0,82,0.00,,---,0.00,VWS V14.01,2013-02-10 00:59:00,
2013-02-09 16:00:00,15.9,11.4,29.04,SW,234,4.0,6.0,82,0.00,,---,0.00,VWS V14.01,2013-02-10 01:00:00,
2013-02-09 16:01:00,15.9,11.4,29.04,SW,234,0.0,6.0,82,0.00,,---,0.00,VWS V14.01,2013-02-10 01:01:00,
2013-02-09 16:02:00,15.9,11.4,29.04,South,190,3.0,3.0,82,0.00,,---,0.00,VWS V14.01,2013-02-10 01:02:00,
2013-02-09 16:04:00,16.0,11.5,29.04,SE,138,4.0,8.0,82,0.00,,---,0.00,VWS V14.01,2013-02-10 01:04:00,
2013-02-09 16:05:00,16.2,11.7,29.04,SSE,161,4.0,8.0,82,0.00,,---,0.00,VWS V14.01,2013-02-10 01:05:00,
2013-02-09 16:06:00,16.2,12.0,29.04,SSE,157,4.0,8.0,83,0.00,,---,0.00,VWS V14.01,2013-02-10 01:06:00,
2013-02-09 16:07:00,16.3,12.1,29.04,SSE,166,6.0,7.0,83,0.00,,---,0.00,VWS V14.01,2013-02-10 01:07:00,
2013-02-09 16:09:00,16.3,11.8,29.03,SSE,163,7.0,8.0,82,0.00,,---,0.00,VWS V14.01,2013-02-10 01:09:00,
2013-02-09 16:10:00,16.3,11.8,29.03,SSE,151,5.0,9.0,82,0.00,,---,0.00,VWS V14.01,2013-02-10 01:10:00,
2013-02-09 16:11:00,16.3,11.8,29.03,SSE,149,7.0,9.0,82,0.00,,---,0.00,VWS V14.01,2013-02-10 01:11:00,
2013-02-09 16:12:00,16.3,11.8,29.03,SSE,150,5.0,7.0,82,0.00,,---,0.00,VWS V14.01,2013-02-10 01:12:00,
2013-02-09 16:14:00,16.4,11.9,29.03,SSE,155,11.0,11.0,82,0.00,,---,0.00,VWS V14.01,2013-02-10 01:14:00,
2013-02-09 16:15:00,16.4,11.9,29.03,SSE,163,7.0,11.0,82,0.00,,---,0.00,VWS V14.01,2013-02-10 01:15:00,
2013-02-09 16:16:00,16.4,11.9,29.03,South,177,5.0,11.0,82,0.00,,---,0.00,VWS V14.01,2013-02-10 01:16:00,
2013-02-09 16:17:00,16.4,11.9,29.03,South,177,0.0,4.0,82,0.00,,---,0.00,VWS V14.01,2013-02-10 01:17:00,
2013-02-09 16:19:00,16.4,11.9,29.03,SE,135,6.0,10.0,82,0.00,,---,0.00,VWS V14.01,2013-02-10 01:19:00,
2013-02-09 16:20:00,16.3,11.8,29.02,SE,140,5.0,10.0,82,0.00,,---,0.00,VWS V14.01,2013-02-10 01:20:00,
2013-02-09 16:21:00,16.3,11.8,29.02,SE,138,5.0,10.0,82,0.00,,---,0.00,VWS V14.01,2013-02-10 01:21:00,
2013-02-09 16:22:00,16.2,11.7,29.02,SE,137,4.0,6.0,82,0.00,,---,0.00,VWS V14.01,2013-02-10 01:22:00,
2013-02-09 16:24:00,16.3,12.1,29.02,ESE,121,6.0,12.0,83,0.00,,---,0.00,VWS V14.01,2013-02-10 01:24:00,
2013-02-09 16:25:00,16.3,12.1,29.02,SE,134,4.0,12.0,83,0.00,,---,0.00,VWS V14.01,2013-02-10 01:25:00,
2013-02-09 16:26:00,16.4,12.1,29.02,SSE,151,10.0,12.0,83,0.00,,---,0.00,VWS V14.01,2013-02-10 01:26:00,
2013-02-09 16:27:00,16.5,12.5,29.02,SSE,155,7.0,9.0,84,0.00,,---,0.00,VWS V14.01,2013-02-10 01:27:00,
2013-02-09 16:30:00,16.6,12.4,29.02,SSE,147,5.0,10.0,83,0.00,,---,0.00,VWS V14.01,2013-02-10 01:30:00,
2013-02-09 16:31:00,16.6,12.1,29.02,SSE,148,5.0,10.0,82,0.00,,---,0.00,VWS V14.01,2013-02-10 01:31:00,
2013-02-09 16:32:00,16.6,12.1,29.02,SSE,147,5.0,5.0,82,0.00,,---,0.00,VWS V14.01,2013-02-10 01:32:00,
2013-02-09 16:35:00,16.6,12.1,29.01,SSE,150,7.0,10.0,82,0.00,,---,0.00,VWS V14.01,2013-02-10 01:35:00,
2013-02-09 16:36:00,16.7,12.2,29.02,SSE,155,5.0,10.0,82,0.00,,---,0.00,VWS V14.01,2013-02-10 01:36:00,
2013-02-09 16:37:00,16.7,12.2,29.02,SSE,148,7.0,8.0,82,0.00,,---,0.00,VWS V14.01,2013-02-10 01:37:00,
2013-02-09 16:40:00,16.9,12.6,29.01,SSE,148,0.0,8.0,83,0.00,,---,0.00,VWS V14.01,2013-02-10 01:40:00,
2013-02-09 16:41:00,16.9,12.6,29.01,SSE,148,0.0,8.0,83,0.00,,---,0.00,VWS V14.01,2013-02-10 01:41:00,
2013-02-09 16:42:00,17.0,12.7,29.01,SSE,148,2.0,5.0,83,0.00,,---,0.00,VWS V14.01,2013-02-10 01:42:00,
2013-02-09 16:45:00,17.2,12.7,29.01,SSE,151,6.0,9.0,82,0.00,,---,0.00,VWS V14.01,2013-02-10 01:45:00,
2013-02-09 16:46:00,17.2,12.7,29.01,SSE,150,7.0,9.0,82,0.00,,---,0.00,VWS V14.01,2013-02-10 01:46:00,
2013-02-09 16:47:00,17.2,12.7,29.01,SSE,150,4.0,4.0,82,0.00,,---,0.00,VWS V14.01,2013-02-10 01:47:00,
2013-02-09 16:48:00,17.2,12.7,29.01,SSE,150,0.0,6.0,82,0.00,,---,0.00,VWS V14.01,2013-02-10 01:48:00,
2013-02-09 16:50:00,17.2,12.4,29.01,SSE,148,7.0,8.0,81,0.00,,---,0.00,VWS V14.01,2013-02-10 01:50:00,
2013-02-09 16:51:00,17.3,12.5,29.01,SSE,148,2.0,8.0,81,0.00,,---,0.00,VWS V14.01,2013-02-10 01:51:00,
2013-02-09 16:52:00,17.2,12.4,29.01,SSE,148,5.0,8.0,81,0.00,,---,0.00,VWS V14.01,2013-02-10 01:52:00,
2013-02-09 16:53:00,17.2,12.4,29.01,SSE,148,1.0,6.0,81,0.00,,---,0.00,VWS V14.01,2013-02-10 01:53:00,
2013-02-09 16:55:00,17.2,12.4,29.01,SSE,148,5.0,6.0,81,0.00,,---,0.00,VWS V14.01,2013-02-10 01:55:00,
2013-02-09 16:56:00,17.2,12.4,29.01,SSE,148,5.0,6.0,81,0.00,,---,0.00,VWS V14.01,2013-02-10 01:56:00,
2013-02-09 16:57:00,17.2,12.4,29.01,South,169,2.0,6.0,81,0.00,,---,0.00,VWS V14.01,2013-02-10 01:57:00,
2013-02-09 16:59:00,17.3,12.5,29.01,SSE,147,8.0,9.0,81,0.00,,---,0.00,VWS V14.01,2013-02-10 01:59:00,
2013-02-09 17:00:00,17.4,12.6,29.01,SE,146,5.0,9.0,81,0.00,,---,0.00,VWS V14.01,2013-02-10 02:00:00,
2013-02-09 17:01:00,17.4,12.6,29.01,SSE,147,0.0,9.0,81,0.00,,---,0.00,VWS V14.01,2013-02-10 02:01:00,
2013-02-09 17:03:00,17.4,12.6,29.01,NE,45,7.0,8.0,81,0.00,,---,0.00,VWS V14.01,2013-02-10 02:03:00,
2013-02-09 17:04:00,17.4,12.6,29.01,East,81,1.0,8.0,81,0.00,,---,0.00,VWS V14.01,2013-02-10 02:04:00,
2013-02-09 17:05:00,17.5,12.7,29.00,SSE,162,0.0,8.0,81,0.00,,---,0.00,VWS V14.01,2013-02-10 02:05:00,
2013-02-09 17:06:00,17.5,12.7,29.00,SSE,163,0.0,8.0,81,0.00,,---,0.00,VWS V14.01,2013-02-10 02:06:00,
2013-02-09 17:08:00,17.5,12.7,29.00,SSE,163,0.0,4.0,81,0.00,,---,0.00,VWS V14.01,2013-02-10 02:08:00,
2013-02-09 17:09:00,17.5,12.7,29.00,SSE,163,0.0,4.0,81,0.00,,---,0.00,VWS V14.01,2013-02-10 02:09:00,
2013-02-09 17:10:00,17.5,12.7,29.00,SSE,163,5.0,5.0,81,0.00,,---,0.00,VWS V14.01,2013-02-10 02:10:00,
2013-02-09 17:12:00,17.5,12.7,29.00,SSE,163,1.0,5.0,81,0.00,,---,0.00,VWS V14.01,2013-02-10 02:12:00,
2013-02-09 17:13:00,17.6,12.8,29.00,SSE,163,1.0,2.0,81,0.00,,---,0.00,VWS V14.01,2013-02-10 02:13:00,
2013-02-09 17:14:00,17.6,12.8,28.99,SE,138,5.0,7.0,81,0.00,,---,0.00,VWS V14.01,2013-02-10 02:14:00,
2013-02-09 17:15:00,17.5,12.7,29.00,SSE,163,1.0,5.0,81,0.00,,---,0.00,VWS V14.01,2013-02-10 02:15:00,
2013-02-09 17:16:00,17.7,12.9,28.99,NNE,28,0.0,8.0,81,0.00,,---,0.00,VWS V14.01,2013-02-10 02:16:00,
2013-02-09 17:17:00,17.8,13.0,28.99,NNE,32,4.0,8.0,81,0.00,,---,0.00,VWS V14.01,2013-02-10 02:17:00,
2013-02-09 17:18:00,17.9,13.1,28.99,NE,49,2.0,4.0,81,0.00,,---,0.00,VWS V14.01,2013-02-10 02:18:00,
2013-02-09 17:19:00,17.9,13.1,28.99,NE,55,3.0,4.0,81,0.00,,---,0.00,VWS V14.01,2013-02-10 02:19:00,
2013-02-09 17:20:00,17.8,13.0,28.99,NE,47,4.0,8.0,81,0.00,,---,0.00,VWS V14.01,2013-02-10 02:20:00,
2013-02-09 17:21:00,18.0,13.2,29.00,ESE,103,0.0,6.0,81,0.00,,---,0.00,VWS V14.01,2013-02-10 02:21:00,
2013-02-09 17:22:00,18.1,13.3,29.00,ESE,103,0.0,6.0,81,0.00,,---,0.00,VWS V14.01,2013-02-10 02:22:00,
2013-02-09 17:23:00,18.1,13.3,29.00,NNW,333,1.0,10.0,81,0.00,,---,0.00,VWS V14.01,2013-02-10 02:23:00,
2013-02-09 17:24:00,18.1,13.0,28.99,East,80,1.0,10.0,80,0.00,,---,0.00,VWS V14.01,2013-02-10 02:24:00,
2013-02-09 17:25:00,18.1,13.3,29.00,ESE,103,0.0,6.0,81,0.00,,---,0.00,VWS V14.01,2013-02-10 02:25:00,
2013-02-09 17:26:00,18.2,13.1,28.99,West,261,4.0,10.0,80,0.00,,---,0.00,VWS V14.01,2013-02-10 02:26:00,
2013-02-09 17:27:00,18.2,13.1,28.99,WSW,252,3.0,3.0,80,0.00,,---,0.00,VWS V14.01,2013-02-10 02:27:00,
2013-02-09 17:28:00,18.2,12.8,28.99,WSW,252,0.0,3.0,79,0.00,,---,0.00,VWS V14.01,2013-02-10 02:28:00,
2013-02-09 17:29:00,18.1,12.7,28.99,South,184,2.0,6.0,79,0.00,,---,0.00,VWS V14.01,2013-02-10 02:29:00,
2013-02-09 17:30:00,18.2,13.1,28.99,WSW,252,4.0,10.0,80,0.00,,---,0.00,VWS V14.01,2013-02-10 02:30:00,
2013-02-09 17:31:00,18.1,13.0,28.98,ESE,107,2.0,12.0,80,0.00,,---,0.00,VWS V14.01,2013-02-10 02:31:00,
2013-02-09 17:32:00,18.1,13.0,28.99,ESE,107,0.0,1.0,80,0.00,,---,0.00,VWS V14.01,2013-02-10 02:32:00,
2013-02-09 17:33:00,18.2,13.1,28.98,ESE,107,0.0,1.0,80,0.00,,---,0.00,VWS V14.01,2013-02-10 02:33:00,
2013-02-09 17:35:00,18.2,13.1,28.98,NE,37,6.0,12.0,80,0.00,,---,0.00,VWS V14.01,2013-02-10 02:35:00,
2013-02-09 17:36:00,18.5,13.6,28.98,NNW,340,8.0,12.0,81,0.00,,---,0.00,VWS V14.01,2013-02-10 02:36:00,
2013-02-09 17:37:00,18.7,14.1,28.99,NNE,13,2.0,11.0,82,0.00,,---,0.00,VWS V14.01,2013-02-10 02:37:00,
2013-02-09 17:39:00,18.9,14.3,28.98,SW,230,0.0,11.0,82,0.00,,---,0.00,VWS V14.01,2013-02-10 02:39:00,
2013-02-09 17:40:00,19.0,14.1,28.98,SW,230,0.0,11.0,81,0.00,,---,0.00,VWS V14.01,2013-02-10 02:40:00,
2013-02-09 17:41:00,19.1,14.2,28.98,SE,134,4.0,11.0,81,0.00,,---,0.00,VWS V14.01,2013-02-10 02:41:00,
2013-02-09 17:42:00,19.1,14.2,28.98,North,360,6.0,9.0,81,0.00,,---,0.00,VWS V14.01,2013-02-10 02:42:00,
2013-02-09 17:44:00,19.1,14.0,28.98,North,360,2.0,9.0,80,0.00,,---,0.00,VWS V14.01,2013-02-10 02:44:00,
2013-02-09 17:45:00,19.2,14.1,28.98,NNE,22,5.0,9.0,80,0.00,,---,0.00,VWS V14.01,2013-02-10 02:45:00,
2013-02-09 17:47:00,19.4,14.2,28.97,North,5,8.0,12.0,80,0.00,,---,0.00,VWS V14.01,2013-02-10 02:47:00,
2013-02-09 17:48:00,19.5,14.4,28.97,North,355,17.0,19.0,80,0.00,,---,0.00,VWS V14.01,2013-02-10 02:48:00,
2013-02-09 17:49:00,19.4,14.0,28.97,NNE,22,12.0,19.0,79,0.00,,---,0.00,VWS V14.01,2013-02-10 02:49:00,
2013-02-09 17:50:00,19.4,14.0,28.97,North,11,10.0,20.0,79,0.00,,---,0.00,VWS V14.01,2013-02-10 02:50:00,
2013-02-09 17:52:00,19.6,14.2,28.98,North,355,8.0,12.0,79,0.00,,---,0.00,VWS V14.01,2013-02-10 02:52:00,
2013-02-09 17:53:00,19.7,14.5,28.98,NNE,21,10.0,12.0,80,0.00,,---,0.00,VWS V14.01,2013-02-10 02:53:00,
2013-02-09 17:54:00,20.0,14.8,28.97,North,360,9.0,14.0,80,0.00,,---,0.00,VWS V14.01,2013-02-10 02:54:00,
2013-02-09 17:55:00,20.0,14.8,28.97,North,355,9.0,14.0,80,0.00,,---,0.00,VWS V14.01,2013-02-10 02:55:00,
2013-02-09 17:57:00,19.8,13.8,28.97,North,350,11.0,14.0,77,0.00,,---,0.00,VWS V14.01,2013-02-10 02:57:00,
2013-02-09 17:58:00,19.6,13.3,28.97,North,355,16.0,19.0,76,0.00,,---,0.00,VWS V14.01,2013-02-10 02:58:00,
2013-02-09 17:59:00,19.4,13.4,28.97,NNW,344,17.0,22.0,77,0.00,,---,0.00,VWS V14.01,2013-02-10 02:59:00,
2013-02-09 18:00:00,19.3,13.3,28.97,NNE,22,21.0,22.0,77,0.00,,---,0.00,VWS V14.01,2013-02-10 03:00:00,
2013-02-09 18:02:00,19.0,13.0,28.96,NNE,17,13.0,15.0,77,0.00,,---,0.00,VWS V14.01,2013-02-10 03:02:00,
2013-02-09 18:03:00,19.1,13.7,28.96,North,351,11.0,22.0,79,0.00,,---,0.00,VWS V14.01,2013-02-10 03:03:00,
2013-02-09 18:05:00,19.5,14.4,28.96,North,355,20.0,27.0,80,0.00,,---,0.00,VWS V14.01,2013-02-10 03:05:00,
2013-02-09 18:07:00,19.4,13.7,28.96,North,355,8.0,16.0,78,0.00,,---,0.00,VWS V14.01,2013-02-10 03:07:00,
2013-02-09 18:08:00,19.5,14.1,28.96,NNW,344,13.0,16.0,79,0.00,,---,0.00,VWS V14.01,2013-02-10 03:08:00,
2013-02-09 18:10:00,19.7,14.3,28.96,NNE,17,16.0,23.0,79,0.00,,---,0.00,VWS V14.01,2013-02-10 03:10:00,
2013-02-09 18:12:00,19.8,14.4,28.96,NNW,343,21.0,24.0,79,0.00,,---,0.00,VWS V14.01,2013-02-10 03:12:00,
2013-02-09 18:13:00,19.8,14.1,28.95,North,9,10.0,25.0,78,0.00,,---,0.00,VWS V14.01,2013-02-10 03:13:00,
2013-02-09 18:15:00,19.8,14.1,28.96,NNE,26,12.0,25.0,78,0.00,,---,0.00,VWS V14.01,2013-02-10 03:15:00,
2013-02-09 18:16:00,19.8,14.1,28.96,North,360,14.0,25.0,78,0.00,,---,0.00,VWS V14.01,2013-02-10 03:16:00,
2013-02-09 18:18:00,19.7,14.0,28.96,North,5,19.0,25.0,78,0.00,,---,0.00,VWS V14.01,2013-02-10 03:18:00,
2013-02-09 18:20:00,19.1,13.1,28.96,North,5,17.0,25.0,77,0.00,,---,0.00,VWS V14.01,2013-02-10 03:20:00,
2013-02-09 18:21:00,18.9,12.9,28.95,North,360,26.0,29.0,77,0.00,,---,0.00,VWS V14.01,2013-02-10 03:21:00,
2013-02-09 18:23:00,18.7,12.4,28.95,North,355,16.0,16.0,76,0.00,,---,0.00,VWS V14.01,2013-02-10 03:23:00,
2013-02-09 18:25:00,18.7,12.4,28.95,North,355,16.0,29.0,76,0.00,,---,0.00,VWS V14.01,2013-02-10 03:25:00,
2013-02-09 18:26:00,18.5,13.4,28.95,NNE,23,17.0,25.0,80,0.00,,---,0.00,VWS V14.01,2013-02-10 03:26:00,
2013-02-09 18:28:00,18.9,13.5,28.95,NNW,341,22.0,23.0,79,0.00,,---,0.00,VWS V14.01,2013-02-10 03:28:00,
2013-02-09 18:30:00,18.8,13.9,28.95,North,360,12.0,25.0,81,0.00,,---,0.00,VWS V14.01,2013-02-10 03:30:00,
2013-02-09 18:31:00,19.3,14.1,28.95,NNE,16,18.0,26.0,80,0.00,,---,0.00,VWS V14.01,2013-02-10 03:31:00,
2013-02-09 18:33:00,19.6,14.2,28.94,North,360,32.0,32.0,79,0.00,,---,0.00,VWS V14.01,2013-02-10 03:33:00,
2013-02-09 18:34:00,19.5,14.1,28.94,North,5,19.0,32.0,79,0.00,,---,0.00,VWS V14.01,2013-02-10 03:34:00,
2013-02-09 18:35:00,19.4,14.2,28.94,North,355,9.0,26.0,80,0.00,,---,0.00,VWS V14.01,2013-02-10 03:35:00,
2013-02-09 18:36:00,18.8,13.1,28.94,NNE,14,24.0,33.0,78,0.00,,---,0.00,VWS V14.01,2013-02-10 03:36:00,
2013-02-09 18:38:00,17.8,11.8,28.94,NNW,346,16.0,30.0,77,0.00,,---,0.00,VWS V14.01,2013-02-10 03:38:00,
2013-02-09 18:39:00,17.7,11.7,28.94,NNW,332,32.0,32.0,77,0.00,,---,0.00,VWS V14.01,2013-02-10 03:39:00,
2013-02-09 18:40:00,18.6,12.6,28.94,North,11,30.0,33.0,77,0.00,,---,0.00,VWS V14.01,2013-02-10 03:40:00,
2013-02-09 18:41:00,17.5,12.4,28.94,North,5,22.0,32.0,80,0.00,,---,0.00,VWS V14.01,2013-02-10 03:41:00,
2013-02-09 18:44:00,17.6,12.2,28.94,NNE,12,19.0,28.0,79,0.00,,---,0.00,VWS V14.01,2013-02-10 03:44:00,
2013-02-09 18:45:00,17.5,12.4,28.94,NNW,348,15.0,32.0,80,0.00,,---,0.00,VWS V14.01,2013-02-10 03:45:00,
2013-02-09 18:46:00,17.8,12.4,28.93,North,355,16.0,30.0,79,0.00,,---,0.00,VWS V14.01,2013-02-10 03:46:00,
2013-02-09 18:47:00,17.8,12.4,28.93,North,5,18.0,22.0,79,0.00,,---,0.00,VWS V14.01,2013-02-10 03:47:00,
2013-02-09 18:49:00,17.9,12.5,28.93,North,360,20.0,31.0,79,0.00,,---,0.00,VWS V14.01,2013-02-10 03:49:00,
2013-02-09 18:50:00,17.8,12.4,28.93,NNE,14,18.0,30.0,79,0.00,,---,0.00,VWS V14.01,2013-02-10 03:50:00,
2013-02-09 18:52:00,17.6,12.2,28.93,North,5,19.0,32.0,79,0.00,,---,0.00,VWS V14.01,2013-02-10 03:52:00,
2013-02-09 18:54:00,17.6,12.5,28.93,NNE,28,18.0,33.0,80,0.00,,---,0.00,VWS V14.01,2013-02-10 03:54:00,
2013-02-09 18:55:00,17.6,12.2,28.93,NNE,12,16.0,32.0,79,0.00,,---,0.00,VWS V14.01,2013-02-10 03:55:00,
2013-02-09 18:57:00,18.1,13.3,28.92,North,11,24.0,26.0,81,0.00,,---,0.00,VWS V14.01,2013-02-10 03:57:00,
2013-02-09 18:59:00,18.2,13.1,28.93,NE,38,21.0,36.0,80,0.00,,---,0.00,VWS V14.01,2013-02-10 03:59:00,
2013-02-09 19:00:00,18.0,13.2,28.92,North,350,26.0,33.0,81,0.00,,---,0.00,VWS V14.01,2013-02-10 04:00:00,
2013-02-09 19:02:00,17.9,12.5,28.93,NNW,344,18.0,21.0,79,0.00,,---,0.00,VWS V14.01,2013-02-10 04:02:00,
2013-02-09 19:04:00,17.8,12.7,28.92,NW,321,18.0,29.0,80,0.00,,---,0.00,VWS V14.01,2013-02-10 04:04:00,
2013-02-09 19:05:00,17.9,12.8,28.92,North,360,14.0,29.0,80,0.00,,---,0.00,VWS V14.01,2013-02-10 04:05:00,
2013-02-09 19:07:00,18.3,13.2,28.92,NNE,24,19.0,28.0,80,0.00,,---,0.00,VWS V14.01,2013-02-10 04:07:00,
2013-02-09 19:08:00,18.4,13.3,28.92,NNE,15,21.0,30.0,80,0.00,,---,0.00,VWS V14.01,2013-02-10 04:08:00,
2013-02-09 19:10:00,18.3,12.9,28.92,NE,34,13.0,30.0,79,0.00,,---,0.00,VWS V14.01,2013-02-10 04:10:00,
2013-02-09 19:12:00,17.7,12.0,28.92,NNE,26,22.0,27.0,78,0.00,,---,0.00,VWS V14.01,2013-02-10 04:12:00,
2013-02-09 19:13:00,17.6,11.9,28.92,North,355,16.0,31.0,78,0.00,,---,0.00,VWS V14.01,2013-02-10 04:13:00,
2013-02-09 19:15:00,17.1,11.4,28.92,NNE,25,30.0,34.0,78,0.00,,---,0.00,VWS V14.01,2013-02-10 04:15:00,
2013-02-09 19:18:00,16.9,11.5,28.92,NW,321,19.0,27.0,79,0.00,,---,0.00,VWS V14.01,2013-02-10 04:18:00,
2013-02-09 19:20:00,17.3,12.2,28.92,NE,36,19.0,33.0,80,0.00,,---,0.00,VWS V14.01,2013-02-10 04:20:00,
2013-02-09 19:23:00,16.8,11.1,28.91,North,5,19.0,26.0,78,0.00,,---,0.00,VWS V14.01,2013-02-10 04:23:00,
2013-02-09 19:24:00,16.7,11.1,28.91,North,355,18.0,28.0,78,0.00,,---,0.00,VWS V14.01,2013-02-10 04:24:00,
2013-02-09 19:25:00,16.5,10.9,28.90,North,360,22.0,28.0,78,0.00,,---,0.00,VWS V14.01,2013-02-10 04:25:00,
2013-02-09 19:28:00,16.2,11.1,28.91,North,5,19.0,30.0,80,0.00,,---,0.00,VWS V14.01,2013-02-10 04:28:00,
2013-02-09 19:29:00,16.2,11.1,28.91,North,5,25.0,30.0,80,0.00,,---,0.00,VWS V14.01,2013-02-10 04:29:00,
2013-02-09 19:30:00,16.3,11.2,28.90,North,5,27.0,30.0,80,0.00,,---,0.00,VWS V14.01,2013-02-10 04:30:00,
2013-02-09 19:31:00,16.4,11.6,28.90,North,355,24.0,30.0,81,0.00,,---,0.00,VWS V14.01,2013-02-10 04:31:00,
2013-02-09 19:33:00,16.1,11.0,28.90,North,355,26.0,30.0,80,0.00,,---,0.00,VWS V14.01,2013-02-10 04:33:00,
2013-02-09 19:34:00,16.1,11.0,28.90,North,5,23.0,30.0,80,0.00,,---,0.00,VWS V14.01,2013-02-10 04:34:00,
2013-02-09 19:35:00,15.9,10.8,28.90,North,355,22.0,30.0,80,0.00,,---,0.00,VWS V14.01,2013-02-10 04:35:00,
2013-02-09 19:36:00,15.8,10.7,28.90,North,5,20.0,30.0,80,0.00,,---,0.00,VWS V14.01,2013-02-10 04:36:00,
2013-02-09 19:39:00,15.9,11.1,28.90,North,360,23.0,31.0,81,0.00,,---,0.00,VWS V14.01,2013-02-10 04:39:00,
2013-02-09 19:40:00,16.0,11.2,28.89,North,355,27.0,31.0,81,0.00,,---,0.00,VWS V14.01,2013-02-10 04:40:00,
2013-02-09 19:41:00,16.1,11.3,28.89,NNE,18,28.0,31.0,81,0.00,,---,0.00,VWS V14.01,2013-02-10 04:41:00,
2013-02-09 19:44:00,16.4,11.9,28.89,NNW,340,28.0,30.0,82,0.00,,---,0.00,VWS V14.01,2013-02-10 04:44:00,
2013-02-09 19:45:00,16.3,11.5,28.89,North,351,22.0,30.0,81,0.00,,---,0.00,VWS V14.01,2013-02-10 04:45:00,
2013-02-09 19:46:00,16.3,11.5,28.89,North,355,23.0,30.0,81,0.00,,---,0.00,VWS V14.01,2013-02-10 04:46:00,
2013-02-09 19:49:00,16.5,11.7,28.89,North,355,19.0,29.0,81,0.00,,---,0.00,VWS V14.01,2013-02-10 04:49:00,
2013-02-09 19:50:00,16.3,11.5,28.89,NNW,347,23.0,30.0,81,0.00,,---,0.00,VWS V14.01,2013-02-10 04:50:00,
2013-02-09 19:51:00,16.8,12.3,28.89,NNW,340,26.0,30.0,82,0.00,,---,0.00,VWS V14.01,2013-02-10 04:51:00,
2013-02-09 19:54:00,17.2,12.1,28.88,North,360,19.0,32.0,80,0.00,,---,0.00,VWS V14.01,2013-02-10 04:54:00,
2013-02-09 19:55:00,17.0,12.5,28.89,North,5,25.0,30.0,82,0.00,,---,0.00,VWS V14.01,2013-02-10 04:55:00,
2013-02-09 19:56:00,17.1,12.0,28.89,North,360,26.0,33.0,80,0.00,,---,0.00,VWS V14.01,2013-02-10 04:56:00,
2013-02-09 19:59:00,16.6,11.5,28.88,NNE,13,22.0,31.0,80,0.00,,---,0.00,VWS V14.01,2013-02-10 04:59:00,
2013-02-09 20:00:00,16.6,11.5,28.88,North,11,24.0,31.0,80,0.00,,---,0.00,VWS V14.01,2013-02-10 05:00:00,
2013-02-09 20:05:00,16.7,11.6,28.89,NNW,344,22.0,33.0,80,0.00,,---,0.00,VWS V14.01,2013-02-10 05:05:00,
2013-02-09 20:10:00,16.2,11.1,28.89,NNE,14,19.0,30.0,80,0.00,,---,0.00,VWS V14.01,2013-02-10 05:10:00,
2013-02-09 20:15:00,16.5,11.4,28.88,North,355,29.0,37.0,80,0.00,,---,0.00,VWS V14.01,2013-02-10 05:15:00,
2013-02-09 20:20:00,16.3,9.8,28.88,East,81,24.0,29.0,75,0.00,,---,0.00,VWS V14.01,2013-02-10 05:20:00,
2013-02-09 20:25:00,15.6,8.5,28.89,NE,50,15.0,28.0,73,0.00,,---,0.00,VWS V14.01,2013-02-10 05:25:00,
2013-02-09 20:26:00,15.5,8.4,28.89,ENE,65,20.0,28.0,73,0.00,,---,0.00,VWS V14.01,2013-02-10 05:26:00,
2013-02-09 20:30:00,14.9,8.7,28.89,ENE,59,22.0,32.0,76,0.00,,---,0.00,VWS V14.01,2013-02-10 05:30:00,
2013-02-09 20:31:00,15.0,8.8,28.89,NE,52,15.0,32.0,76,0.00,,---,0.00,VWS V14.01,2013-02-10 05:31:00,
2013-02-09 20:35:00,15.3,9.4,28.89,NNE,12,8.0,32.0,77,0.00,,---,0.00,VWS V14.01,2013-02-10 05:35:00,
2013-02-09 20:36:00,15.0,8.5,28.91,NNW,348,9.0,15.0,75,0.00,,---,0.00,VWS V14.01,2013-02-10 05:36:00,
2013-02-09 20:40:00,14.8,8.6,28.91,NNW,347,12.0,15.0,76,0.00,,---,0.00,VWS V14.01,2013-02-10 05:40:00,
2013-02-09 20:41:00,14.3,8.1,28.91,NNW,344,12.0,17.0,76,0.00,,---,0.00,VWS V14.01,2013-02-10 05:41:00,
2013-02-09 20:45:00,14.3,8.1,28.91,North,360,7.0,17.0,76,0.00,,---,0.00,VWS V14.01,2013-02-10 05:45:00,
2013-02-09 20:46:00,14.3,8.4,28.91,NW,309,14.0,19.0,77,0.00,,---,0.00,VWS V14.01,2013-02-10 05:46:00,
2013-02-09 20:50:00,14.3,8.4,28.91,WNW,299,9.0,19.0,77,0.00,,---,0.00,VWS V14.01,2013-02-10 05:50:00,
2013-02-09 20:51:00,15.4,10.1,28.91,NW,319,14.0,24.0,79,0.00,,---,0.00,VWS V14.01,2013-02-10 05:51:00,
2013-02-09 20:52:00,15.7,10.4,28.90,North,5,17.0,24.0,79,0.00,,---,0.00,VWS V14.01,2013-02-10 05:52:00,
2013-02-09 20:55:00,15.7,10.4,28.90,North,5,17.0,24.0,79,0.00,,---,0.00,VWS V14.01,2013-02-10 05:55:00,
2013-02-09 20:56:00,15.8,9.3,28.91,North,355,7.0,25.0,75,0.00,,---,0.00,VWS V14.01,2013-02-10 05:56:00,
2013-02-09 20:57:00,15.8,9.3,28.91,North,355,6.0,25.0,75,0.00,,---,0.00,VWS V14.01,2013-02-10 05:57:00,
2013-02-09 21:00:00,15.8,9.3,28.91,North,355,6.0,25.0,75,0.00,,---,0.00,VWS V14.01,2013-02-10 06:00:00,
2013-02-09 21:02:00,16.1,10.5,28.90,WNW,300,7.0,12.0,78,0.00,,---,0.00,VWS V14.01,2013-02-10 06:02:00,
2013-02-09 21:05:00,16.1,10.5,28.90,NNW,337,11.0,20.0,78,0.00,,---,0.00,VWS V14.01,2013-02-10 06:05:00,
2013-02-09 21:07:00,15.9,9.7,28.90,NNW,338,7.0,14.0,76,0.00,,---,0.00,VWS V14.01,2013-02-10 06:07:00,
2013-02-09 21:08:00,15.9,9.7,28.90,NNW,344,21.0,21.0,76,0.00,,---,0.00,VWS V14.01,2013-02-10 06:08:00,
2013-02-09 21:10:00,15.9,9.7,28.89,NNW,340,10.0,24.0,76,0.00,,---,0.00,VWS V14.01,2013-02-10 06:10:00,
2013-02-09 21:12:00,15.3,9.1,28.90,North,5,10.0,20.0,76,0.00,,---,0.00,VWS V14.01,2013-02-10 06:12:00,
2013-02-09 21:13:00,15.3,9.1,28.90,NNW,334,13.0,20.0,76,0.00,,---,0.00,VWS V14.01,2013-02-10 06:13:00,
2013-02-09 21:15:00,15.3,9.1,28.90,NNW,342,17.0,22.0,76,0.00,,---,0.00,VWS V14.01,2013-02-10 06:15:00,
2013-02-09 21:17:00,15.9,9.7,28.89,North,355,12.0,13.0,76,0.00,,---,0.00,VWS V14.01,2013-02-10 06:17:00,
2013-02-09 21:18:00,15.9,9.7,28.89,NW,315,14.0,14.0,76,0.00,,---,0.00,VWS V14.01,2013-02-10 06:18:00,
2013-02-09 21:20:00,16.0,9.8,28.89,NW,320,13.0,22.0,76,0.00,,---,0.00,VWS V14.01,2013-02-10 06:20:00,
2013-02-09 21:22:00,16.4,9.9,28.90,North,5,10.0,18.0,75,0.00,,---,0.00,VWS V14.01,2013-02-10 06:22:00,
2013-02-09 21:23:00,16.4,9.9,28.90,NNE,22,11.0,18.0,75,0.00,,---,0.00,VWS V14.01,2013-02-10 06:23:00,
2013-02-09 21:25:00,16.4,10.2,28.90,NNW,344,11.0,16.0,76,0.00,,---,0.00,VWS V14.01,2013-02-10 06:25:00,
2013-02-09 21:28:00,16.8,10.6,28.89,NNW,336,11.0,12.0,76,0.00,,---,0.00,VWS V14.01,2013-02-10 06:28:00,
2013-02-09 21:30:00,16.8,10.9,28.89,NW,304,7.0,18.0,77,0.00,,---,0.00,VWS V14.01,2013-02-10 06:30:00,
2013-02-09 21:33:00,16.7,10.8,28.89,WNW,296,8.0,12.0,77,0.00,,---,0.00,VWS V14.01,2013-02-10 06:33:00,
2013-02-09 21:35:00,16.8,10.3,28.89,NE,34,7.0,18.0,75,0.00,,---,0.00,VWS V14.01,2013-02-10 06:35:00,
2013-02-09 21:38:00,17.2,11.5,28.88,WSW,256,9.0,11.0,78,0.00,,---,0.00,VWS V14.01,2013-02-10 06:38:00,
2013-02-09 21:40:00,16.8,11.1,28.88,NW,304,5.0,13.0,78,0.00,,---,0.00,VWS V14.01,2013-02-10 06:40:00,
2013-02-09 21:43:00,16.9,10.7,28.88,NW,323,6.0,15.0,76,0.00,,---,0.00,VWS V14.01,2013-02-10 06:43:00,
2013-02-09 21:44:00,16.9,10.7,28.88,NNW,332,5.0,15.0,76,0.00,,---,0.00,VWS V14.01,2013-02-10 06:44:00,
2013-02-09 21:45:00,17.2,11.2,28.88,NW,319,7.0,14.0,77,0.00,,---,0.00,VWS V14.01,2013-02-10 06:45:00,
2013-02-09 21:48:00,17.1,12.0,28.87,NNE,21,5.0,8.0,80,0.00,,---,0.00,VWS V14.01,2013-02-10 06:48:00,
2013-02-09 21:49:00,17.1,12.0,28.87,NNE,21,5.0,8.0,80,0.00,,---,0.00,VWS V14.01,2013-02-10 06:49:00,
2013-02-09 21:50:00,16.8,10.9,28.88,NNW,337,8.0,15.0,77,0.00,,---,0.00,VWS V14.01,2013-02-10 06:50:00,
2013-02-09 21:54:00,18.8,13.1,28.87,WNW,300,6.0,8.0,78,0.00,,---,0.00,VWS V14.01,2013-02-10 06:54:00,
2013-02-09 21:55:00,18.5,13.6,28.87,NW,320,8.0,11.0,81,0.00,,---,0.00,VWS V14.01,2013-02-10 06:55:00,
2013-02-09 21:59:00,17.5,11.5,28.86,NNW,346,5.0,10.0,77,0.00,,---,0.00,VWS V14.01,2013-02-10 06:59:00,
2013-02-09 22:00:00,18.1,11.2,28.87,North,355,5.0,16.0,74,0.00,,---,0.00,VWS V14.01,2013-02-10 07:00:00,
2013-02-09 22:04:00,18.4,13.3,28.86,NNW,343,4.0,7.0,80,0.00,,---,0.00,VWS V14.01,2013-02-10 07:04:00,
2013-02-09 22:05:00,17.9,12.5,28.86,NNE,26,6.0,15.0,79,0.00,,---,0.00,VWS V14.01,2013-02-10 07:05:00,
2013-02-09 22:09:00,19.9,14.4,28.85,NNE,29,11.0,14.0,79,0.00,,---,0.00,VWS V14.01,2013-02-10 07:09:00,
2013-02-09 22:10:00,19.9,13.9,28.85,NNW,342,6.0,14.0,77,0.00,,---,0.00,VWS V14.01,2013-02-10 07:10:00,
2013-02-09 22:14:00,18.3,12.3,28.85,NE,46,12.0,18.0,77,0.00,,---,0.00,VWS V14.01,2013-02-10 07:14:00,
2013-02-09 22:15:00,18.2,12.5,28.85,NE,42,12.0,18.0,78,0.00,,---,0.00,VWS V14.01,2013-02-10 07:15:00,
2013-02-09 22:19:00,17.4,11.4,28.85,ENE,65,17.0,23.0,77,0.00,,---,0.00,VWS V14.01,2013-02-10 07:19:00,
2013-02-09 22:20:00,17.2,11.5,28.85,NE,40,11.0,23.0,78,0.00,,---,0.00,VWS V14.01,2013-02-10 07:20:00,
2013-02-09 22:24:00,17.3,11.6,28.85,NNE,30,10.0,22.0,78,0.00,,---,0.00,VWS V14.01,2013-02-10 07:24:00,
2013-02-09 22:25:00,17.4,12.0,28.85,NE,50,12.0,22.0,79,0.00,,---,0.00,VWS V14.01,2013-02-10 07:25:00,
2013-02-09 22:29:00,17.8,11.8,28.85,NNE,15,11.0,18.0,77,0.00,,---,0.00,VWS V14.01,2013-02-10 07:29:00,
2013-02-09 22:30:00,17.9,12.2,28.85,NE,36,14.0,21.0,78,0.00,,---,0.00,VWS V14.01,2013-02-10 07:30:00,
2013-02-09 22:31:00,18.2,12.5,28.85,NE,47,13.0,21.0,78,0.00,,---,0.00,VWS V14.01,2013-02-10 07:31:00,
2013-02-09 22:34:00,18.5,12.5,28.85,NE,38,9.0,14.0,77,0.00,,---,0.00,VWS V14.01,2013-02-10 07:34:00,
2013-02-09 22:35:00,18.6,12.6,28.85,NNE,32,11.0,14.0,77,0.00,,---,0.00,VWS V14.01,2013-02-10 07:35:00,
2013-02-09 22:36:00,18.5,12.2,28.85,ENE,57,18.0,18.0,76,0.00,,---,0.00,VWS V14.01,2013-02-10 07:36:00,
2013-02-09 22:37:00,18.4,12.1,28.85,NE,42,12.0,21.0,76,0.00,,---,0.00,VWS V14.01,2013-02-10 07:37:00,
2013-02-09 22:40:00,18.3,12.0,28.85,NE,56,17.0,21.0,76,0.00,,---,0.00,VWS V14.01,2013-02-10 07:40:00,
2013-02-09 22:41:00,18.3,11.7,28.85,ENE,60,20.0,24.0,75,0.00,,---,0.00,VWS V14.01,2013-02-10 07:41:00,
2013-02-09 22:42:00,18.3,11.7,28.85,ENE,69,18.0,24.0,75,0.00,,---,0.00,VWS V14.01,2013-02-10 07:42:00,
2013-02-09 22:45:00,18.2,11.6,28.84,ENE,57,14.0,27.0,75,0.00,,---,0.00,VWS V14.01,2013-02-10 07:45:00,
2013-02-09 22:46:00,18.0,11.4,28.84,ENE,59,17.0,27.0,75,0.00,,---,0.00,VWS V14.01,2013-02-10 07:46:00,
2013-02-09 22:47:00,18.0,11.4,28.84,ENE,58,19.0,27.0,75,0.00,,---,0.00,VWS V14.01,2013-02-10 07:47:00,
2013-02-09 22:50:00,18.2,12.2,28.84,NE,42,16.0,27.0,77,0.00,,---,0.00,VWS V14.01,2013-02-10 07:50:00,
2013-02-09 22:52:00,18.4,12.1,28.84,NE,50,15.0,15.0,76,0.00,,---,0.00,VWS V14.01,2013-02-10 07:52:00,
2013-02-09 22:55:00,18.9,12.6,28.84,ENE,63,18.0,25.0,76,0.00,,---,0.00,VWS V14.01,2013-02-10 07:55:00,
2013-02-09 22:57:00,19.2,12.9,28.84,ENE,61,23.0,25.0,76,0.00,,---,0.00,VWS V14.01,2013-02-10 07:57:00,
2013-02-09 23:00:00,19.3,12.7,28.84,NNE,21,14.0,25.0,75,0.00,,---,0.00,VWS V14.01,2013-02-10 08:00:00,
2013-02-09 23:02:00,19.6,13.0,28.84,NE,51,20.0,20.0,75,0.00,,---,0.00,VWS V14.01,2013-02-10 08:02:00,
2013-02-09 23:05:00,19.8,13.2,28.84,NE,55,20.0,24.0,75,0.00,,---,0.00,VWS V14.01,2013-02-10 08:05:00,
2013-02-09 23:07:00,19.8,13.2,28.84,NNE,32,10.0,10.0,75,0.00,,---,0.00,VWS V14.01,2013-02-10 08:07:00,
2013-02-09 23:10:00,19.8,13.2,28.84,NNE,32,10.0,24.0,75,0.00,,---,0.00,VWS V14.01,2013-02-10 08:10:00,
2013-02-09 23:11:00,19.4,14.0,28.83,North,350,23.0,27.0,79,0.00,,---,0.00,VWS V14.01,2013-02-10 08:11:00,
2013-02-09 23:12:00,19.4,14.2,28.83,North,360,19.0,27.0,80,0.00,,---,0.00,VWS V14.01,2013-02-10 08:12:00,
2013-02-09 23:13:00,19.3,13.9,28.83,NNW,346,23.0,23.0,79,0.00,,---,0.00,VWS V14.01,2013-02-10 08:13:00,
2013-02-09 23:15:00,19.4,14.2,28.83,North,360,19.0,27.0,80,0.00,,---,0.00,VWS V14.01,2013-02-10 08:15:00,
2013-02-09 23:16:00,19.4,14.2,28.83,North,355,15.0,29.0,80,0.00,,---,0.00,VWS V14.01,2013-02-10 08:16:00,
2013-02-09 23:17:00,19.5,14.4,28.83,North,5,14.0,19.0,80,0.00,,---,0.00,VWS V14.01,2013-02-10 08:17:00,
2013-02-09 23:18:00,19.7,14.8,28.83,North,355,17.0,23.0,81,0.00,,---,0.00,VWS V14.01,2013-02-10 08:18:00,
2013-02-09 23:20:00,19.5,14.4,28.83,North,5,19.0,29.0,80,0.00,,---,0.00,VWS V14.01,2013-02-10 08:20:00,
2013-02-09 23:21:00,20.7,16.1,28.83,North,360,17.0,25.0,82,0.00,,---,0.00,VWS V14.01,2013-02-10 08:21:00,
2013-02-09 23:22:00,20.8,16.2,28.83,NNW,348,17.0,17.0,82,0.00,,---,0.00,VWS V14.01,2013-02-10 08:22:00,
2013-02-09 23:23:00,20.9,16.3,28.83,North,350,21.0,24.0,82,0.00,,---,0.00,VWS V14.01,2013-02-10 08:23:00,
2013-02-09 23:25:00,20.7,16.1,28.83,NNW,347,15.0,25.0,82,0.00,,---,0.00,VWS V14.01,2013-02-10 08:25:00,
2013-02-09 23:27:00,21.2,16.6,28.83,NNE,13,16.0,16.0,82,0.00,,---,0.00,VWS V14.01,2013-02-10 08:27:00,
2013-02-09 23:28:00,21.2,16.6,28.83,North,11,14.0,17.0,82,0.00,,---,0.00,VWS V14.01,2013-02-10 08:28:00,
2013-02-09 23:30:00,21.1,16.5,28.83,North,5,15.0,24.0,82,0.00,,---,0.00,VWS V14.01,2013-02-10 08:30:00,
2013-02-09 23:32:00,21.2,16.6,28.83,NNE,13,16.0,16.0,82,0.00,,---,0.00,VWS V14.01,2013-02-10 08:32:00,
2013-02-09 23:33:00,21.1,16.2,28.83,North,360,20.0,21.0,81,0.00,,---,0.00,VWS V14.01,2013-02-10 08:33:00,
2013-02-09 23:34:00,21.0,16.1,28.83,North,9,17.0,23.0,81,0.00,,---,0.00,VWS V14.01,2013-02-10 08:34:00,
2013-02-09 23:35:00,21.2,16.6,28.83,North,11,14.0,24.0,82,0.00,,---,0.00,VWS V14.01,2013-02-10 08:35:00,
2013-02-09 23:37:00,20.6,15.7,28.83,North,360,24.0,24.0,81,0.00,,---,0.00,VWS V14.01,2013-02-10 08:37:00,
2013-02-09 23:38:00,20.5,15.6,28.83,North,5,22.0,26.0,81,0.00,,---,0.00,VWS V14.01,2013-02-10 08:38:00,
2013-02-09 23:39:00,20.6,16.0,28.83,North,11,18.0,26.0,82,0.00,,---,0.00,VWS V14.01,2013-02-10 08:39:00,
2013-02-09 23:40:00,20.6,15.7,28.83,North,360,24.0,24.0,81,0.00,,---,0.00,VWS V14.01,2013-02-10 08:40:00,
2013-02-09 23:42:00,20.5,15.9,28.83,NNE,15,22.0,26.0,82,0.00,,---,0.00,VWS V14.01,2013-02-10 08:42:00,
2013-02-09 23:43:00,20.7,16.1,28.83,NNW,343,16.0,24.0,82,0.00,,---,0.00,VWS V14.01,2013-02-10 08:43:00,
2013-02-09 23:44:00,20.7,16.4,28.83,North,360,19.0,26.0,83,0.00,,---,0.00,VWS V14.01,2013-02-10 08:44:00,
2013-02-09 23:45:00,20.5,15.9,28.83,NNE,15,22.0,26.0,82,0.00,,---,0.00,VWS V14.01,2013-02-10 08:45:00,
2013-02-09 23:47:00,20.2,15.0,28.83,North,5,22.0,29.0,80,0.00,,---,0.00,VWS V14.01,2013-02-10 08:47:00,
2013-02-09 23:48:00,20.0,14.8,28.83,NNE,19,26.0,29.0,80,0.00,,---,0.00,VWS V14.01,2013-02-10 08:48:00,
2013-02-09 23:49:00,19.7,14.5,28.83,North,5,17.0,29.0,80,0.00,,---,0.00,VWS V14.01,2013-02-10 08:49:00,
2013-02-09 23:50:00,20.2,15.0,28.83,NNE,17,24.0,30.0,80,0.00,,---,0.00,VWS V14.01,2013-02-10 08:50:00,
2013-02-09 23:52:00,19.5,14.9,28.83,NNE,18,15.0,20.0,82,0.00,,---,0.00,VWS V14.01,2013-02-10 08:52:00,
2013-02-09 23:53:00,19.5,14.9,28.83,North,5,21.0,23.0,82,0.00,,---,0.00,VWS V14.01,2013-02-10 08:53:00,
2013-02-09 23:54:00,19.5,15.2,28.83,North,355,19.0,24.0,83,0.00,,---,0.00,VWS V14.01,2013-02-10 08:54:00,
2013-02-09 23:55:00,19.5,14.6,28.83,North,360,20.0,29.0,81,0.00,,---,0.00,VWS V14.01,2013-02-10 08:55:00,
2013-02-09 23:57:00,19.7,15.4,28.83,North,5,19.0,23.0,83,0.00,,---,0.00,VWS V14.01,2013-02-10 08:57:00,
2013-02-09 23:59:00,19.7,15.4,28.83,North,5,19.0,26.0,83,0.00,,---,0.00,VWS V14.01,2013-02-10 08:59:00,